Sigfox identifier Datetime Temperature Humidity SNR
003AD064 2019-04-12 12:34:26 21 17 22.9
003AD064 2019-04-12 12:04:47 21 17 22.7
003AD064 2019-04-12 11:35:08 21.1 17 22.8
003AD064 2019-04-12 11:05:29 21.1 18 23
003AD064 2019-04-12 10:35:50 21 17 23.3
003AD064 2019-04-12 10:06:10 20.9 18 23.4
003AD064 2019-04-12 09:36:30 20.9 17 23.4
003AD064 2019-04-12 09:06:48 20.8 17 23.4
003AD064 2019-04-12 08:37:06 20.8 17 23.4
003AD064 2019-04-12 08:07:24 20.9 18 23.9
003AD064 2019-04-12 07:37:42 20.9 18 23.9
003AD064 2019-04-12 07:08:03 20.9 18 24
003AD064 2019-04-12 06:38:24 20.9 18 23.9
003AD064 2019-04-12 06:08:44 20.9 18 23.7
003AD064 2019-04-12 05:39:05 20.9 18 23.4
003AD064 2019-04-12 05:09:26 20.9 18 23.2
003AD064 2019-04-12 04:39:47 20.9 18 23.2
003AD064 2019-04-12 04:10:09 21 18 23.4
003AD064 2019-04-12 03:40:30 21 18 23.3
003AD064 2019-04-12 03:10:51 21 18 23.5
003AD064 2019-04-12 02:40:39 21 18 23.4
003AD064 2019-04-12 02:11:00 21.1 18 23.5
003AD064 2019-04-12 01:41:21 21.1 18 23.4
003AD064 2019-04-12 01:11:41 21.2 18 23.2
003AD064 2019-04-12 00:42:01 21.2 18 23
003AD064 2019-04-12 00:12:22 21.2 18 22.9
003AD064 2019-04-11 23:42:45 21.3 18 22.8
003AD064 2019-04-11 23:13:03 21.4 18 22.7
003AD064 2019-04-11 22:43:23 21.4 18 22.4
003AD064 2019-04-11 22:13:45 21.4 18 22
003AD064 2019-04-11 21:44:06 21.4 18 21.7
003AD064 2019-04-11 21:14:26 21.4 18 21.9
003AD064 2019-04-11 20:44:47 21.4 17 22
003AD064 2019-04-11 20:15:07 21.3 17 21.9
003AD064 2019-04-11 19:45:27 21.3 17 20.9
003AD064 2019-04-11 19:15:45 21.2 17 21
003AD064 2019-04-11 18:46:03 21.2 17 20.5
003AD064 2019-04-11 18:16:24 21.2 17 20.6
003AD064 2019-04-11 17:46:44 21.2 17 20.9
003AD064 2019-04-11 17:17:04 21.2 17 20.8
003AD064 2019-04-11 16:47:25 21.3 17 21.1
003AD064 2019-04-11 16:17:46 21.2 18 21.3
003AD064 2019-04-11 15:48:05 21.1 18 21.5
003AD064 2019-04-11 15:18:26 21 18 21.6
003AD064 2019-04-11 14:48:45 20.9 18 22.4
003AD064 2019-04-11 14:19:05 21 18 22.3
003AD064 2019-04-11 13:49:25 20.9 18 23.1
003AD064 2019-04-11 13:19:44 20.8 17 23.3
003AD064 2019-04-11 12:50:05 20.8 17 23.6
003AD064 2019-04-11 12:20:26 20.8 18 23.6
003AD064 2019-04-11 11:50:46 20.8 18 23.6
003AD064 2019-04-11 11:21:07 20.8 18 24.3
003AD064 2019-04-11 10:51:29 20.8 18 24.3
003AD064 2019-04-11 10:21:49 20.7 18 24.4
003AD064 2019-04-11 09:52:09 20.7 18 24.4
003AD064 2019-04-11 09:22:31 20.7 18 24.4
003AD064 2019-04-11 08:52:53 20.7 18 24.4
003AD064 2019-04-11 08:23:15 20.7 18 24.3
003AD064 2019-04-11 07:53:35 20.7 18 24.4
003AD064 2019-04-11 07:23:58 20.7 18 24.3
003AD064 2019-04-11 06:54:20 20.7 18 24.2
003AD064 2019-04-11 06:24:41 20.8 18 24.8
003AD064 2019-04-11 05:55:04 20.7 18 24.7
003AD064 2019-04-11 05:25:28 20.8 18 24.6
003AD064 2019-04-11 04:55:50 20.8 18 24.6
003AD064 2019-04-11 04:26:12 20.8 18 24.5
003AD064 2019-04-11 03:56:34 20.8 18 24.4
003AD064 2019-04-11 03:26:56 20.8 18 24.3
003AD064 2019-04-11 02:57:19 20.8 18 24.3
003AD064 2019-04-11 02:27:41 20.9 18 23.6
003AD064 2019-04-11 01:57:26 20.9 19 23
003AD064 2019-04-11 01:27:47 20.9 19 22.8
003AD064 2019-04-11 00:58:10 20.9 19 22.5
003AD064 2019-04-11 00:28:30 21 19 22.7
003AD064 2019-04-10 23:58:52 21 19 23.5
003AD064 2019-04-10 23:29:14 21 19 22.8
003AD064 2019-04-10 22:59:37 21 19 23
003AD064 2019-04-10 22:29:58 20.9 19 23.5
003AD064 2019-04-10 22:00:21 20.9 19 23.5
003AD064 2019-04-10 21:30:43 20.9 19 23.8
003AD064 2019-04-10 21:01:05 20.9 19 23.8
003AD064 2019-04-10 20:31:27 20.9 18 23.9
003AD064 2019-04-10 20:01:47 20.8 18 24.2
003AD064 2019-04-10 19:32:08 20.8 18 24.5
003AD064 2019-04-10 19:02:28 20.7 18 24.6
003AD064 2019-04-10 18:32:49 20.7 18 24.5
003AD064 2019-04-10 18:03:08 20.7 19 24.6
003AD064 2019-04-10 17:33:29 20.7 19 24.7
003AD064 2019-04-10 17:03:49 20.8 19 24.8
003AD064 2019-04-10 16:34:10 20.8 19 25.3
003AD064 2019-04-10 16:04:29 20.8 19 25.4
003AD064 2019-04-10 15:34:49 20.8 20 25.6
003AD064 2019-04-10 15:05:09 20.8 20 25.8
003AD064 2019-04-10 14:35:30 20.9 20 25.9
003AD064 2019-04-10 14:05:52 20.9 20 26
003AD064 2019-04-10 13:36:13 20.9 20 26.1
003AD064 2019-04-10 13:06:34 20.8 20 26.1
003AD064 2019-04-10 12:36:55 20.8 20 26.4
003AD064 2019-04-10 12:07:18 20.8 21 26.4
003AD064 2019-04-10 11:37:37 20.8 21 26.2
003AD064 2019-04-10 11:07:55 20.7 21 26.2
003AD064 2019-04-10 10:38:14 20.7 21 26.3
003AD064 2019-04-10 10:08:33 20.7 21 26.1
003AD064 2019-04-10 09:38:52 20.7 22 26.2
003AD064 2019-04-10 09:09:11 20.5 22 26.1
003AD064 2019-04-10 08:39:29 20.5 22 26.1
003AD064 2019-04-10 08:09:47 20.5 23 26.2
003AD064 2019-04-10 07:40:06 20.6 23 26
003AD064 2019-04-10 07:10:25 20.6 23 26.1
003AD064 2019-04-10 06:40:43 20.6 23 26.4
003AD064 2019-04-10 06:11:04 20.6 24 26.2
003AD064 2019-04-10 05:41:23 20.6 24 26.3
003AD064 2019-04-10 05:11:44 20.6 24 26.3
003AD064 2019-04-10 04:42:05 20.6 24 26.4
003AD064 2019-04-10 04:12:26 20.6 24 26.1
003AD064 2019-04-10 03:42:47 20.6 24 26
003AD064 2019-04-10 03:13:08 20.6 24 25.9
003AD064 2019-04-10 02:43:28 20.7 25 26.2
003AD064 2019-04-10 02:13:48 20.7 25 26.1
003AD064 2019-04-10 01:44:08 20.7 25 26.1
003AD064 2019-04-10 01:14:01 20.7 25 25.9
003AD064 2019-04-10 00:44:23 20.7 26 25.7
003AD064 2019-04-10 00:14:43 20.7 26 25.4
003AD064 2019-04-09 23:45:04 20.7 26 25.3
003AD064 2019-04-09 23:15:24 20.7 26 25.1
003AD064 2019-04-09 22:45:43 20.7 27 25
003AD064 2019-04-09 22:16:05 20.7 27 24.8
003AD064 2019-04-09 21:46:25 20.7 27 24.6
003AD064 2019-04-09 21:16:48 20.7 27 24.6
003AD064 2019-04-09 20:47:08 20.7 27 24.5
003AD064 2019-04-09 20:17:28 20.7 27 24.3
003AD064 2019-04-09 19:47:47 20.7 27 24.1
003AD064 2019-04-09 19:18:08 20.7 27 23.5
003AD064 2019-04-09 18:48:28 20.7 27 23.1
003AD064 2019-04-09 18:18:49 20.7 27 22.7
003AD064 2019-04-09 17:49:10 20.8 27 22.6
003AD064 2019-04-09 17:19:31 20.8 27 22.4
003AD064 2019-04-09 16:49:51 20.8 27 22.4
003AD064 2019-04-09 16:20:13 20.8 27 22.3
003AD064 2019-04-09 15:50:34 20.9 27 22.4
003AD064 2019-04-09 15:20:53 20.9 26 22.2
003AD064 2019-04-09 14:51:14 20.9 26 21.3
003AD064 2019-04-09 14:21:34 20.9 26 21.3
003AD064 2019-04-09 13:51:55 20.9 26 22.4
003AD064 2019-04-09 13:22:12 20.8 26 22.6
003AD064 2019-04-09 12:52:33 20.9 26 22.9
003AD064 2019-04-09 12:22:53 20.9 26 23
003AD064 2019-04-09 11:53:14 20.9 26 23.2
003AD064 2019-04-09 11:23:32 20.8 26 23.4
003AD064 2019-04-09 10:53:51 20.8 26 23.6
003AD064 2019-04-09 10:24:08 20.8 26 23.8
003AD064 2019-04-09 09:54:26 20.8 26 24
003AD064 2019-04-09 09:24:46 20.7 25 24
003AD064 2019-04-09 08:55:05 20.7 25 24.1
003AD064 2019-04-09 08:25:25 20.7 25 24.2
003AD064 2019-04-09 07:55:46 20.7 25 24.2
003AD064 2019-04-09 07:26:06 20.7 25 24.3
003AD064 2019-04-09 06:56:26 20.8 25 24.2
003AD064 2019-04-09 06:26:44 20.8 25 24.3
003AD064 2019-04-09 05:57:04 20.7 25 24.3
003AD064 2019-04-09 05:27:23 20.8 25 24.4
003AD064 2019-04-09 04:57:43 20.8 25 24.5
003AD064 2019-04-09 04:28:05 20.8 25 24.4
003AD064 2019-04-09 03:58:25 20.8 25 24.2
003AD064 2019-04-09 03:28:45 20.8 25 24.1
003AD064 2019-04-09 02:59:07 20.8 25 24
003AD064 2019-04-09 02:29:28 20.8 25 23.9
003AD064 2019-04-09 01:59:48 20.8 25 23.2
003AD064 2019-04-09 01:30:10 20.8 25 23
003AD064 2019-04-09 01:00:28 21.1 25 23
003AD064 2019-04-09 00:59:19 20.8 25 22.7
003AD064 2019-04-09 00:29:39 20.9 25 22.6
003AD064 2019-04-08 23:59:57 20.9 25 22.3
003AD064 2019-04-08 23:30:16 20.9 26 22.1
003AD064 2019-04-08 23:00:36 20.9 26 22.8
003AD064 2019-04-08 22:30:56 20.9 26 22.7
003AD064 2019-04-08 22:01:16 20.9 26 22.3
003AD064 2019-04-08 21:31:36 20.9 26 22.2
003AD064 2019-04-08 21:01:57 20.9 26 22.1
003AD064 2019-04-08 20:32:19 20.9 26 22
003AD064 2019-04-08 20:02:42 20.9 26 22.3
003AD064 2019-04-08 19:33:02 20.9 26 22.1
003AD064 2019-04-08 19:03:23 20.9 26 22.2
003AD064 2019-04-08 18:33:42 20.9 26 22
003AD064 2019-04-08 18:04:04 20.9 26 21.6
003AD064 2019-04-08 17:34:24 20.9 26 21.2
003AD064 2019-04-08 17:04:45 20.9 26 21
003AD064 2019-04-08 16:35:05 21 26 20.9
003AD064 2019-04-08 16:05:26 21 26 21.2
003AD064 2019-04-08 15:35:47 21 26 21.1
003AD064 2019-04-08 15:06:08 21 26 21.5
003AD064 2019-04-08 14:36:28 21 26 21.5
003AD064 2019-04-08 14:06:50 21 26 21.5
003AD064 2019-04-08 13:37:12 21 26 21.4
003AD064 2019-04-08 13:07:33 20.9 26 21.5
003AD064 2019-04-08 12:37:55 20.7 26 21.9
003AD064 2019-04-08 12:08:16 20.7 25 22.1
003AD064 2019-04-08 11:38:36 20.7 25 22.1
003AD064 2019-04-08 11:08:57 20.6 25 22.1
003AD064 2019-04-08 10:39:18 20.6 25 21
003AD064 2019-04-08 10:09:38 20.5 24 20.8
003AD064 2019-04-08 09:40:00 20.5 24 20.8
003AD064 2019-04-08 09:10:20 20.5 24 22
003AD064 2019-04-08 08:40:40 20.4 24 22.2
003AD064 2019-04-08 08:11:03 20.3 23 21.9
003AD064 2019-04-08 07:41:24 20.4 23 21.9
003AD064 2019-04-08 07:11:46 20.4 23 21.9
003AD064 2019-04-08 06:42:07 20.4 23 21.9
003AD064 2019-04-08 06:12:28 20.4 23 21.9
003AD064 2019-04-08 05:42:49 20.5 23 22.9
003AD064 2019-04-08 05:13:10 20.5 23 22.7
003AD064 2019-04-08 04:43:32 20.5 23 22.7
003AD064 2019-04-08 04:13:53 20.5 23 22.5
003AD064 2019-04-08 03:44:14 20.5 23 22.6
003AD064 2019-04-08 03:14:35 20.6 23 22.2
003AD064 2019-04-08 02:44:56 20.6 23 22.2
003AD064 2019-04-08 02:15:16 20.6 23 22.1
003AD064 2019-04-08 01:45:37 20.6 23 22.2
003AD064 2019-04-08 01:15:58 20.6 23 21.9
003AD064 2019-04-08 00:46:18 20.7 22 21.8
003AD064 2019-04-08 00:16:05 20.7 22 22.6
003AD064 2019-04-07 23:46:25 20.7 22 22.9
003AD064 2019-04-07 23:16:46 20.7 22 22.9
003AD064 2019-04-07 22:47:06 20.7 22 22.9
003AD064 2019-04-07 22:17:25 20.8 22 23
003AD064 2019-04-07 21:47:44 20.9 22 23
003AD064 2019-04-07 21:18:03 20.9 22 22.1
003AD064 2019-04-07 20:48:23 20.9 22 21.9
003AD064 2019-04-07 20:18:43 20.9 22 21.8
003AD064 2019-04-07 19:49:07 21 22 21.9
003AD064 2019-04-07 19:19:23 21 22 21.7
003AD064 2019-04-07 18:49:43 20.9 22 21.7
003AD064 2019-04-07 18:20:04 20.9 22 21.7
003AD064 2019-04-07 17:50:23 20.9 22 20.4
003AD064 2019-04-07 17:20:44 20.9 22 20.4
003AD064 2019-04-07 16:51:04 20.9 22 20.3
003AD064 2019-04-07 16:21:25 20.8 22 20.4
003AD064 2019-04-07 15:51:46 20.7 22 20.4
003AD064 2019-04-07 15:22:07 20.6 22 20.4
003AD064 2019-04-07 14:52:28 20.6 21 20.5
003AD064 2019-04-07 14:22:48 20.5 21 20.6
003AD064 2019-04-07 13:53:07 20.5 21 20.7
003AD064 2019-04-07 13:23:26 20.5 21 20.7
003AD064 2019-04-07 12:53:45 20.5 21 20.3
003AD064 2019-04-07 12:24:05 20.5 21 20.2
003AD064 2019-04-07 11:54:26 20.5 21 18.3
003AD064 2019-04-07 11:24:48 20.5 21 17.6
003AD064 2019-04-07 10:55:09 20.5 21 17.9
003AD064 2019-04-07 10:25:29 20.5 21 17.9
003AD064 2019-04-07 09:55:50 20.5 21 17.7
003AD064 2019-04-07 09:26:09 20.5 21 17.7
003AD064 2019-04-07 08:56:31 20.5 21 17.5
003AD064 2019-04-07 08:26:53 20.5 21 17.5
003AD064 2019-04-07 07:57:14 20.5 21 17.4
003AD064 2019-04-07 07:27:32 20.6 21 17.8
003AD064 2019-04-07 06:57:52 20.6 21 18.2
003AD064 2019-04-07 06:28:12 20.7 21 18.4
003AD064 2019-04-07 05:58:35 20.7 21 18.3
003AD064 2019-04-07 05:28:56 20.7 21 18.5
003AD064 2019-04-07 04:59:17 20.7 21 18.5
003AD064 2019-04-07 04:29:38 20.7 21 18.5
003AD064 2019-04-07 03:59:59 20.8 21 18.5
003AD064 2019-04-07 03:30:21 20.8 21 18.5
003AD064 2019-04-07 03:00:42 20.9 21 18.4
003AD064 2019-04-07 02:31:02 20.9 21 18.5
003AD064 2019-04-07 02:01:23 20.9 21 18.4
003AD064 2019-04-07 01:31:43 21 21 18.8
003AD064 2019-04-07 01:02:05 21 21 18.8
003AD064 2019-04-07 00:32:25 21.1 21 19
003AD064 2019-04-07 00:02:46 21.1 21 19.1
003AD064 2019-04-06 23:32:34 21.1 21 18.9
003AD064 2019-04-06 23:02:55 21.2 21 19.1
003AD064 2019-04-06 22:33:17 21.2 21 19.2
003AD064 2019-04-06 22:03:39 21.2 21 19.3
003AD064 2019-04-06 21:34:02 21.3 21 19.3
003AD064 2019-04-06 21:04:24 21.3 21 19.3
003AD064 2019-04-06 20:34:46 21.3 21 19.3
003AD064 2019-04-06 20:05:10 21.3 21 19.3
003AD064 2019-04-06 19:35:28 21.3 21 19
003AD064 2019-04-06 19:05:48 21.3 21 18.7
003AD064 2019-04-06 18:36:09 21.3 21 18.6
003AD064 2019-04-06 18:06:31 21.2 21 18.8
003AD064 2019-04-06 17:36:55 21.2 21 18.6
003AD064 2019-04-06 17:07:17 21.1 21 18.6
003AD064 2019-04-06 16:37:38 21 21 18.6
003AD064 2019-04-06 16:07:58 20.9 21 18.6
003AD064 2019-04-06 15:38:22 20.7 21 18.6
003AD064 2019-04-06 15:08:43 20.7 21 18.5
003AD064 2019-04-06 14:39:06 20.7 21 18.4
003AD064 2019-04-06 14:09:29 20.6 21 18.4
003AD064 2019-04-06 13:39:51 20.6 21 18
003AD064 2019-04-06 13:10:12 20.6 20 18.1
003AD064 2019-04-06 12:40:34 20.6 20 17.9
003AD064 2019-04-06 12:10:55 20.6 20 17.7
003AD064 2019-04-06 11:41:18 20.6 20 17.6
003AD064 2019-04-06 11:11:40 20.6 20 17.5
003AD064 2019-04-06 10:42:04 20.6 20 17.3
003AD064 2019-04-06 10:12:26 20.6 20 16.9
003AD064 2019-04-06 09:42:48 20.6 20 16.8
003AD064 2019-04-06 09:13:10 20.6 20 17.5
003AD064 2019-04-06 08:43:32 20.6 20 17.7
003AD064 2019-04-06 08:13:53 20.7 20 17.6
003AD064 2019-04-06 07:44:14 20.7 20 17.6
003AD064 2019-04-06 07:14:36 20.7 20 17.6
003AD064 2019-04-06 06:44:58 20.7 20 17.5
003AD064 2019-04-06 06:15:20 20.8 20 17.5
003AD064 2019-04-06 05:45:42 20.8 20 17.4
003AD064 2019-04-06 05:16:04 20.9 20 17.7
003AD064 2019-04-06 04:46:25 20.9 20 18.2
003AD064 2019-04-06 04:16:47 21 20 18.5
003AD064 2019-04-06 03:47:10 21 20 18.4
003AD064 2019-04-06 03:17:31 21 20 18.4
003AD064 2019-04-06 02:47:52 21.1 19 18.6
003AD064 2019-04-06 02:18:13 21.2 19 18.8
003AD064 2019-04-06 01:48:35 21.2 19 18.8
003AD064 2019-04-06 01:18:57 21.3 19 18.7
003AD064 2019-04-06 00:49:16 21.4 19 18.6
003AD064 2019-04-06 00:19:37 21.4 19 18.4
003AD064 2019-04-05 23:49:57 21.5 19 18.9
003AD064 2019-04-05 23:20:18 21.8 19 19
003AD064 2019-04-05 23:19:09 21.6 19 19
003AD064 2019-04-05 22:49:32 21.7 19 19.1
003AD064 2019-04-05 22:19:53 21.8 19 19.1
003AD064 2019-04-05 21:50:14 21.8 19 19.7
003AD064 2019-04-05 21:20:35 21.9 19 19.3
003AD064 2019-04-05 20:50:56 21.9 19 19.2
003AD064 2019-04-05 20:21:17 21.9 19 19.4
003AD064 2019-04-05 19:51:37 21.9 19 19.5
003AD064 2019-04-05 19:21:59 21.9 19 19.5
003AD064 2019-04-05 18:52:19 21.7 19 19.6
003AD064 2019-04-05 18:22:40 21.7 19 21.1
003AD064 2019-04-05 17:53:00 21.7 19 21.1
003AD064 2019-04-05 17:23:21 21.7 19 21
003AD064 2019-04-05 16:53:43 21.7 20 20.7
003AD064 2019-04-05 16:24:06 21.6 20 20.5
003AD064 2019-04-05 15:54:27 21.6 21 20.5
003AD064 2019-04-05 15:24:48 21.5 21 20.7
003AD064 2019-04-05 14:55:09 21.4 21 20.6
003AD064 2019-04-05 14:25:30 21.3 21 20.4
003AD064 2019-04-05 13:55:51 21.3 21 20.4
003AD064 2019-04-05 13:26:14 21.3 21 20.6
003AD064 2019-04-05 12:56:33 21.3 21 20.7
003AD064 2019-04-05 12:26:55 21.2 22 20.7
003AD064 2019-04-05 11:57:15 21.3 22 20.5
003AD064 2019-04-05 11:27:37 21.2 22 20.4
003AD064 2019-04-05 10:57:57 21.2 21 20.4
003AD064 2019-04-05 10:28:18 21.2 21 20.4
003AD064 2019-04-05 09:58:38 21.1 21 20.4
003AD064 2019-04-05 09:28:59 21.1 20 19.9
003AD064 2019-04-05 08:59:20 21 19 19.9
003AD064 2019-04-05 08:29:41 21 19 19.9
003AD064 2019-04-05 08:00:01 21.1 19 19.8
003AD064 2019-04-05 07:30:19 21.1 19 19.8
003AD064 2019-04-05 07:00:40 21.1 19 19.7
003AD064 2019-04-05 06:31:01 21.1 19 17.4
003AD064 2019-04-05 06:01:21 21.1 19 19.7
003AD064 2019-04-05 05:31:43 21.2 19 19.7
003AD064 2019-04-05 05:02:05 21.2 19 19.7
003AD064 2019-04-05 04:32:27 21.2 19 19.7
003AD064 2019-04-05 04:02:48 21.3 19 19.8
003AD064 2019-04-05 03:33:09 21.2 19 21.1
003AD064 2019-04-05 03:03:30 21.3 19 22.2
003AD064 2019-04-05 02:33:50 21.3 19 22.2
003AD064 2019-04-05 02:04:11 21.4 19 23.1
003AD064 2019-04-05 01:34:32 21.4 19 23
003AD064 2019-04-05 01:04:53 21.4 19 23
003AD064 2019-04-05 00:35:13 21.5 19 23
003AD064 2019-04-05 00:05:32 21.5 19 23
003AD064 2019-04-04 23:35:51 21.5 19 23
003AD064 2019-04-04 23:06:12 21.8 18 22.9
003AD064 2019-04-04 23:05:02 21.5 19 22.9
003AD064 2019-04-04 22:35:23 21.6 18 22.9
003AD064 2019-04-04 22:05:45 21.6 18 22.9
003AD064 2019-04-04 21:36:06 21.6 18 23
003AD064 2019-04-04 21:06:27 21.6 18 23.1
003AD064 2019-04-04 20:36:48 21.6 18 23.1
003AD064 2019-04-04 20:07:08 21.5 18 23.1
003AD064 2019-04-04 19:37:28 21.5 18 23.2
003AD064 2019-04-04 19:07:49 21.5 18 23.2
003AD064 2019-04-04 18:38:10 21.5 18 23.2
003AD064 2019-04-04 18:08:30 21.5 18 22.4
003AD064 2019-04-04 17:38:51 21.5 18 22.4
003AD064 2019-04-04 17:09:12 21.5 19 22.5
003AD064 2019-04-04 16:39:32 21.5 19 22.6
003AD064 2019-04-04 16:09:52 21.4 19 22.5
003AD064 2019-04-04 15:40:11 21.3 20 21.7
003AD064 2019-04-04 15:10:31 21.3 20 20.4
003AD064 2019-04-04 14:40:52 21.2 20 20.3
003AD064 2019-04-04 14:11:11 21.2 20 18.5
003AD064 2019-04-04 13:41:32 21.2 20 18.5
003AD064 2019-04-04 13:11:53 21.1 20 18.4
003AD064 2019-04-04 12:42:14 21.1 20 18.5
003AD064 2019-04-04 12:12:34 21.1 20 18.5
003AD064 2019-04-04 11:42:55 21 20 18.6
003AD064 2019-04-04 11:13:15 21 20 18.7
003AD064 2019-04-04 10:43:36 21 20 18.8
003AD064 2019-04-04 10:13:56 21 20 18.7
003AD064 2019-04-04 09:44:17 21 20 18.6
003AD064 2019-04-04 09:14:37 21 20 18.6
003AD064 2019-04-04 08:44:57 21 20 18
003AD064 2019-04-04 08:15:16 21 20 17.9
003AD064 2019-04-04 07:45:35 21.1 20 17.8
003AD064 2019-04-04 07:15:55 21.1 20 17.8
003AD064 2019-04-04 06:46:14 21.1 20 17.7
003AD064 2019-04-04 06:16:35 21.1 20 17.6
003AD064 2019-04-04 05:46:56 21.2 20 17.5
003AD064 2019-04-04 05:17:16 21.2 20 17.5
003AD064 2019-04-04 04:47:37 21.2 20 17.1
003AD064 2019-04-04 04:17:57 21.2 20 17.8
003AD064 2019-04-04 03:48:17 21.3 20 17.8
003AD064 2019-04-04 03:18:38 21.3 19 17.4
003AD064 2019-04-04 02:48:59 21.3 19 17.3
003AD064 2019-04-04 02:19:21 21.4 19 17.3
003AD064 2019-04-04 01:49:41 21.4 19 17.7
003AD064 2019-04-04 01:20:03 21.4 19 18.3
003AD064 2019-04-04 00:50:24 21.5 19 18.6
003AD064 2019-04-04 00:20:44 21.5 19 18.9
003AD064 2019-04-03 23:51:03 21.6 19 19.1
003AD064 2019-04-03 23:21:20 21.6 19 19.1
003AD064 2019-04-03 22:51:38 21.6 19 19.1
003AD064 2019-04-03 22:21:31 21.7 19 19.1
003AD064 2019-04-03 21:51:52 21.7 19 19.4
003AD064 2019-04-03 21:22:13 21.7 19 19.6
003AD064 2019-04-03 20:52:34 21.7 19 19.6
003AD064 2019-04-03 20:22:54 21.7 19 19.6
003AD064 2019-04-03 19:53:14 21.7 19 19.6
003AD064 2019-04-03 19:23:34 21.7 19 19.8
003AD064 2019-04-03 18:53:54 21.7 19 20
003AD064 2019-04-03 18:24:15 21.8 19 20
003AD064 2019-04-03 17:54:35 21.9 19 20.2
003AD064 2019-04-03 17:24:55 21.9 20 20.5
003AD064 2019-04-03 16:55:15 21.8 21 20.6
003AD064 2019-04-03 16:25:36 21.7 20 20.2
003AD064 2019-04-03 15:55:58 21.6 21 20.5
003AD064 2019-04-03 15:26:18 21.5 21 20.4
003AD064 2019-04-03 14:56:37 21.4 21 20.5
003AD064 2019-04-03 14:26:56 21.3 21 20.5
003AD064 2019-04-03 13:57:14 21.3 21 20.3
003AD064 2019-04-03 13:27:34 21.2 21 19.9
003AD064 2019-04-03 12:57:55 21.2 20 20.1
003AD064 2019-04-03 12:28:17 21.1 20 20.1
003AD064 2019-04-03 11:58:37 21.2 21 20
003AD064 2019-04-03 11:28:59 21.1 21 20.5
003AD064 2019-04-03 10:59:19 21.1 21 20.5
003AD064 2019-04-03 10:29:41 21 21 20.8
003AD064 2019-04-03 10:00:02 21 21 21
003AD064 2019-04-03 09:30:20 20.9 20 20.9
003AD064 2019-04-03 09:00:42 20.8 19 20.9
003AD064 2019-04-03 08:31:02 20.8 19 20.9
003AD064 2019-04-03 08:01:24 20.9 19 20.9
003AD064 2019-04-03 07:31:41 20.9 20 20.9
003AD064 2019-04-03 07:02:01 20.9 20 20.8
003AD064 2019-04-03 06:32:21 20.9 19 20.5
003AD064 2019-04-03 06:02:40 20.9 19 20.7
003AD064 2019-04-03 05:33:00 20.9 19 20.8
003AD064 2019-04-03 05:03:19 20.9 19 20.6
003AD064 2019-04-03 04:33:39 20.9 19 20.5
003AD064 2019-04-03 04:04:00 20.9 19 20.6
003AD064 2019-04-03 03:34:21 21 19 20.4
003AD064 2019-04-03 03:04:41 21 19 20.5
003AD064 2019-04-03 02:35:02 21 19 20.3
003AD064 2019-04-03 02:05:24 21.1 19 20.5
003AD064 2019-04-03 01:35:46 21.1 19 20.8
003AD064 2019-04-03 01:06:06 21.2 19 20.8
003AD064 2019-04-03 00:36:28 21.2 19 20.6
003AD064 2019-04-03 00:06:49 21.2 19 20.5
003AD064 2019-04-02 23:37:10 21.3 19 21.7
003AD064 2019-04-02 23:07:33 21.3 18 21.4
003AD064 2019-04-02 22:37:53 21.3 18 21.5
003AD064 2019-04-02 22:08:16 21.4 18 22.3
003AD064 2019-04-02 21:38:04 21.4 18 22.3
003AD064 2019-04-02 21:08:25 21.4 18 22.2
003AD064 2019-04-02 20:38:47 21.4 18 22.3
003AD064 2019-04-02 20:09:09 21.4 18 22.4
003AD064 2019-04-02 19:39:30 21.4 18 22.4
003AD064 2019-04-02 19:09:50 21.4 18 22.5
003AD064 2019-04-02 18:40:12 21.4 18 22.5
003AD064 2019-04-02 18:10:32 21.5 18 22.5
003AD064 2019-04-02 17:40:53 21.5 18 22.6
003AD064 2019-04-02 17:11:14 21.5 19 22.9
003AD064 2019-04-02 16:41:34 21.5 20 22.9
003AD064 2019-04-02 16:11:55 21.5 20 23
003AD064 2019-04-02 15:42:18 21.3 21 23.1
003AD064 2019-04-02 15:12:39 21.2 22 23.2
003AD064 2019-04-02 14:42:58 21.1 22 23.3
003AD064 2019-04-02 14:13:19 21 23 23.2
003AD064 2019-04-02 13:43:41 20.9 23 23.1
003AD064 2019-04-02 13:14:05 20.9 22 23.1
003AD064 2019-04-02 12:44:27 20.9 22 23.1
003AD064 2019-04-02 12:14:49 20.9 22 23.2
003AD064 2019-04-02 11:45:12 20.9 22 22.3
003AD064 2019-04-02 11:15:37 20.8 22 22.3
003AD064 2019-04-02 10:46:01 20.8 22 22.6
003AD064 2019-04-02 10:16:21 20.8 21 21.8
003AD064 2019-04-02 09:46:44 20.8 21 21.6
003AD064 2019-04-02 09:17:05 20.8 20 21.6
003AD064 2019-04-02 08:47:26 20.7 20 21.6
003AD064 2019-04-02 08:17:46 20.7 20 21.7
003AD064 2019-04-02 07:48:10 20.7 19 21.7
003AD064 2019-04-02 07:18:34 20.8 19 21.6
003AD064 2019-04-02 06:48:58 20.8 19 21.5
003AD064 2019-04-02 06:19:22 20.8 19 21.5
003AD064 2019-04-02 05:49:45 20.8 19 21.6
003AD064 2019-04-02 05:20:08 20.8 19 21.3
003AD064 2019-04-02 04:50:31 20.8 19 21.1
003AD064 2019-04-02 04:20:55 20.8 19 21
003AD064 2019-04-02 03:51:22 20.9 19 22.1
003AD064 2019-04-02 03:21:44 20.9 18 21.9
003AD064 2019-04-02 02:52:08 20.9 18 21.8
003AD064 2019-04-02 02:22:32 20.9 18 21.7
003AD064 2019-04-02 01:52:56 21 18 21.6
003AD064 2019-04-02 01:23:19 21 18 21.6
003AD064 2019-04-02 00:53:43 21 18 21.7
003AD064 2019-04-02 00:24:06 21.1 18 21.8
003AD064 2019-04-01 23:54:30 21.1 17 21.7
003AD064 2019-04-01 23:24:53 21.1 17 21.6
003AD064 2019-04-01 22:55:15 21.2 17 21.9
003AD064 2019-04-01 22:25:37 21.2 17 21.4
003AD064 2019-04-01 21:56:00 21.2 17 21.2
003AD064 2019-04-01 21:26:23 21.2 17 21.3
003AD064 2019-04-01 20:56:12 21.2 17 21.2
003AD064 2019-04-01 20:26:35 21.2 17 21
003AD064 2019-04-01 19:56:57 21.2 16 20.8
003AD064 2019-04-01 19:27:19 21.2 16 20.8
003AD064 2019-04-01 18:57:42 21.2 16 20.7
003AD064 2019-04-01 18:28:05 21.2 16 20.8
003AD064 2019-04-01 17:58:27 21.2 17 20.6
003AD064 2019-04-01 17:28:50 21.2 17 21.8
003AD064 2019-04-01 16:59:12 21.1 17 21.8
003AD064 2019-04-01 16:29:30 21.1 17 22.2
003AD064 2019-04-01 15:59:49 20.9 18 21
003AD064 2019-04-01 15:30:10 20.8 18 21.1
003AD064 2019-04-01 15:00:30 20.7 19 21.1
003AD064 2019-04-01 14:30:50 20.7 19 21.4
003AD064 2019-04-01 14:01:11 20.6 20 21.4
003AD064 2019-04-01 13:31:32 20.6 20 21.1
003AD064 2019-04-01 13:01:52 20.6 20 21
003AD064 2019-04-01 12:32:11 20.6 21 21.3
003AD064 2019-04-01 12:02:30 20.6 21 21.3
003AD064 2019-04-01 11:32:48 20.6 22 20.9
003AD064 2019-04-01 11:03:08 20.6 22 20.9
003AD064 2019-04-01 10:33:28 20.6 22 21
003AD064 2019-04-01 10:03:49 20.6 22 21
003AD064 2019-04-01 09:34:13 20.5 22 21
003AD064 2019-04-01 09:04:33 20.5 22 21.4
003AD064 2019-04-01 08:34:55 20.5 22 21.5
003AD064 2019-04-01 08:05:16 20.5 22 21.5
003AD064 2019-04-01 07:35:37 20.5 23 21.5
003AD064 2019-04-01 07:05:59 20.5 23 21.5
003AD064 2019-04-01 06:36:21 20.5 23 21.6
003AD064 2019-04-01 06:06:43 20.5 23 21.5
003AD064 2019-04-01 05:37:03 20.5 23 20.2
003AD064 2019-04-01 05:07:25 20.5 23 19.9
003AD064 2019-04-01 04:37:47 20.5 23 19.9
003AD064 2019-04-01 04:08:09 20.5 23 19.9
003AD064 2019-04-01 03:38:31 20.6 23 20.2
003AD064 2019-04-01 03:08:54 20.6 23 20.7
003AD064 2019-04-01 02:39:16 20.6 24 20.9
003AD064 2019-04-01 02:09:38 20.6 24 21.1
003AD064 2019-04-01 01:40:03 20.6 24 21.5
003AD064 2019-04-01 01:10:22 20.6 24 21.5
003AD064 2019-04-01 00:40:44 20.7 24 21.5
003AD064 2019-04-01 00:11:05 20.7 24 21.5
003AD064 2019-03-31 23:41:27 20.7 25 21.5
003AD064 2019-03-31 23:11:49 20.8 25 21.6
003AD064 2019-03-31 22:42:11 20.8 25 21.8
003AD064 2019-03-31 22:12:32 20.8 25 21.7
003AD064 2019-03-31 21:42:53 20.8 26 22
003AD064 2019-03-31 21:13:13 20.9 26 22.1
003AD064 2019-03-31 20:43:35 20.9 26 22
003AD064 2019-03-31 20:13:24 20.9 27 22.3
003AD064 2019-03-31 19:43:46 20.9 27 22.4
003AD064 2019-03-31 19:14:07 20.8 27 22.5
003AD064 2019-03-31 18:44:30 20.8 27 22.6
003AD064 2019-03-31 18:14:52 20.8 27 22.9
003AD064 2019-03-31 17:45:15 20.7 27 23.3
003AD064 2019-03-31 17:15:38 20.7 27 23.4
003AD064 2019-03-31 16:46:01 20.7 27 23.2
003AD064 2019-03-31 16:16:23 20.6 27 23.2
003AD064 2019-03-31 15:46:44 20.7 27 23.1
003AD064 2019-03-31 15:17:06 20.7 27 22.8
003AD064 2019-03-31 14:47:27 20.7 27 22.6
003AD064 2019-03-31 14:17:49 20.7 27 22.4
003AD064 2019-03-31 13:48:10 20.7 27 22.2
003AD064 2019-03-31 13:18:32 20.7 27 22.3
003AD064 2019-03-31 12:48:53 20.7 27 22.3
003AD064 2019-03-31 12:19:15 20.7 27 22.1
003AD064 2019-03-31 11:49:37 20.7 27 22.1
003AD064 2019-03-31 11:19:58 20.7 27 21.9
003AD064 2019-03-31 10:50:22 20.6 27 21.8
003AD064 2019-03-31 10:20:42 20.6 27 21.8
003AD064 2019-03-31 09:51:04 20.6 27 21.7
003AD064 2019-03-31 09:21:27 20.6 27 21.7
003AD064 2019-03-31 08:51:49 20.6 27 22.6
003AD064 2019-03-31 08:22:12 20.7 27 22.4
003AD064 2019-03-31 07:52:34 20.7 28 22.2
003AD064 2019-03-31 07:22:56 20.7 28 22.3
003AD064 2019-03-31 06:53:18 20.7 28 22.4
003AD064 2019-03-31 06:23:41 20.7 28 22.3
003AD064 2019-03-31 05:54:02 20.7 27 21.9
003AD064 2019-03-31 05:24:25 20.7 27 21.4
003AD064 2019-03-31 04:54:47 20.7 27 21.2
003AD064 2019-03-31 04:25:10 20.7 27 21.3
003AD064 2019-03-31 02:55:31 20.7 27 21.3
003AD064 2019-03-31 02:25:54 20.7 27 21.3
003AD064 2019-03-31 01:56:17 20.7 27 21.3
003AD064 2019-03-31 01:26:38 20.7 27 21.3
003AD064 2019-03-31 00:56:59 20.7 27 21.2
003AD064 2019-03-31 00:27:21 20.7 27 21.2
003AD064 2019-03-30 23:57:42 20.8 27 21.4
003AD064 2019-03-30 23:28:05 20.8 27 21.7
003AD064 2019-03-30 22:58:28 20.8 27 21.8
003AD064 2019-03-30 22:28:51 20.8 27 21.8
003AD064 2019-03-30 21:59:13 20.8 27 21.8
003AD064 2019-03-30 21:29:34 20.9 27 21.8
003AD064 2019-03-30 20:59:55 20.9 27 21.7
003AD064 2019-03-30 20:30:18 20.9 27 21.9
003AD064 2019-03-30 20:00:39 20.9 27 22
003AD064 2019-03-30 19:31:02 21 27 20.8
003AD064 2019-03-30 19:01:24 21 27 21.2
003AD064 2019-03-30 18:31:09 21 27 20.7
003AD064 2019-03-30 18:01:29 21 27 20.9
003AD064 2019-03-30 17:31:49 21 27 20.7
003AD064 2019-03-30 17:02:09 21 27 21
003AD064 2019-03-30 16:32:28 21 27 21.1
003AD064 2019-03-30 16:02:48 21 27 21
003AD064 2019-03-30 15:33:08 21 27 20.9
003AD064 2019-03-30 15:03:27 20.9 27 22
003AD064 2019-03-30 14:33:47 20.9 27 22
003AD064 2019-03-30 14:04:07 20.9 27 22
003AD064 2019-03-30 13:34:28 20.9 27 22
003AD064 2019-03-30 13:04:49 20.8 27 22.2
003AD064 2019-03-30 12:35:09 20.8 27 22.3
003AD064 2019-03-30 12:05:36 20.8 27 22.1
003AD064 2019-03-30 11:35:53 20.8 27 21.9
003AD064 2019-03-30 11:06:13 20.8 27 22
003AD064 2019-03-30 10:36:35 20.8 27 22
003AD064 2019-03-30 10:06:55 20.7 27 23
003AD064 2019-03-30 09:37:15 20.7 27 22.9
003AD064 2019-03-30 09:07:35 20.7 27 23
003AD064 2019-03-30 08:37:57 20.7 27 22.7
003AD064 2019-03-30 08:08:18 20.7 27 22.5
003AD064 2019-03-30 07:38:39 20.7 27 22.5
003AD064 2019-03-30 07:09:00 20.7 27 22.4
003AD064 2019-03-30 06:39:21 20.7 27 22.6
003AD064 2019-03-30 06:09:41 20.7 27 22.6
003AD064 2019-03-30 05:40:04 20.8 27 22.5
003AD064 2019-03-30 05:10:25 20.8 27 22.4
003AD064 2019-03-30 04:40:47 20.8 27 22.2
003AD064 2019-03-30 04:11:09 20.8 27 22.3
003AD064 2019-03-30 03:41:29 20.8 27 22.3
003AD064 2019-03-30 03:11:48 20.8 27 22.5
003AD064 2019-03-30 02:42:11 20.9 27 21.5
003AD064 2019-03-30 02:12:35 20.9 28 21.4
003AD064 2019-03-30 01:42:58 20.9 28 21.4
003AD064 2019-03-30 01:13:20 20.9 28 21.3
003AD064 2019-03-30 00:43:40 21 28 20.9
003AD064 2019-03-30 00:14:02 21 28 20.6
003AD064 2019-03-29 23:44:23 21 28 20.7
003AD064 2019-03-29 23:14:45 21 28 20.5
003AD064 2019-03-29 22:45:08 21.1 28 20.4
003AD064 2019-03-29 22:15:30 21.1 28 20.3
003AD064 2019-03-29 21:45:53 21.1 28 18.4
003AD064 2019-03-29 21:16:17 21.1 28 20.3
003AD064 2019-03-29 20:46:38 21 28 20.3
003AD064 2019-03-29 20:17:00 21.1 28 20.7
003AD064 2019-03-29 19:47:22 21.1 28 20.6
003AD064 2019-03-29 19:17:45 21 28 20.7
003AD064 2019-03-29 18:48:08 21 28 20.4
003AD064 2019-03-29 18:18:31 21.1 28 20.3
003AD064 2019-03-29 17:48:21 21.1 28 20.2
003AD064 2019-03-29 17:18:44 21.1 28 20.2
003AD064 2019-03-29 16:49:07 21.1 28 21.6
003AD064 2019-03-29 16:19:29 21.2 28 22.5
003AD064 2019-03-29 15:49:52 21.2 28 22.6
003AD064 2019-03-29 15:20:14 21.2 28 22.6
003AD064 2019-03-29 14:50:36 21.1 28 22.6
003AD064 2019-03-29 14:20:59 21.2 28 22.6
003AD064 2019-03-29 13:51:22 21.1 28 22.6
003AD064 2019-03-29 13:21:48 21 27 22.7
003AD064 2019-03-29 12:52:12 21 27 23
003AD064 2019-03-29 12:22:32 21 27 23
003AD064 2019-03-29 11:52:54 21 27 23
003AD064 2019-03-29 11:23:16 21 27 23
003AD064 2019-03-29 10:53:39 21 27 23
003AD064 2019-03-29 10:24:01 21 27 23.1
003AD064 2019-03-29 09:54:24 20.9 26 23.2
003AD064 2019-03-29 09:24:44 20.9 26 22.3
003AD064 2019-03-29 08:55:05 20.8 25 22.3
003AD064 2019-03-29 08:25:27 20.8 25 22.2
003AD064 2019-03-29 07:55:49 20.8 25 22.2
003AD064 2019-03-29 07:26:12 20.8 25 23
003AD064 2019-03-29 06:56:34 20.8 25 23.1
003AD064 2019-03-29 06:26:56 20.8 25 23.8
003AD064 2019-03-29 05:57:20 20.8 25 23.9
003AD064 2019-03-29 05:27:43 20.9 25 23.9
003AD064 2019-03-29 04:58:07 20.9 25 23.9
003AD064 2019-03-29 04:28:29 20.9 25 23.2
003AD064 2019-03-29 03:58:50 21 25 22.3
003AD064 2019-03-29 03:29:13 21 25 23.1
003AD064 2019-03-29 02:59:34 21 25 23.7
003AD064 2019-03-29 02:29:54 21.1 25 23.6
003AD064 2019-03-29 02:00:16 21.1 25 23.8
003AD064 2019-03-29 01:30:37 21.1 25 23.8
003AD064 2019-03-29 01:01:00 21.1 25 23.8
003AD064 2019-03-29 00:31:21 21.1 24 23.6
003AD064 2019-03-29 00:01:43 21.1 24 23.6
003AD064 2019-03-28 23:32:05 21.1 24 23.5
003AD064 2019-03-28 23:02:27 21.1 24 23.5
003AD064 2019-03-28 22:32:49 21.2 24 23.7
003AD064 2019-03-28 22:03:12 21.2 24 24.3
003AD064 2019-03-28 21:33:32 21.2 24 24.3
003AD064 2019-03-28 21:03:55 21.2 24 24.3
003AD064 2019-03-28 20:34:15 21.2 24 24.3
003AD064 2019-03-28 20:04:37 21.2 24 24.2
003AD064 2019-03-28 19:35:00 21.2 24 24.3
003AD064 2019-03-28 19:05:21 21.2 24 23.7
003AD064 2019-03-28 18:35:44 21.2 24 23.6
003AD064 2019-03-28 18:06:06 21.2 24 22.7
003AD064 2019-03-28 17:36:29 21.3 24 22.8
003AD064 2019-03-28 17:06:18 21.2 24 22.7
003AD064 2019-03-28 16:36:41 21.2 24 22.7
003AD064 2019-03-28 16:07:03 21.2 23 22.7
003AD064 2019-03-28 15:37:26 21.2 23 21.7
003AD064 2019-03-28 15:07:48 21.1 23 20.3
003AD064 2019-03-28 14:38:12 21.1 23 20.6
003AD064 2019-03-28 14:08:35 21.1 22 20.2
003AD064 2019-03-28 13:38:57 21.1 22 20.3
003AD064 2019-03-28 13:09:20 21 22 21.6
003AD064 2019-03-28 12:39:43 21 21 21.6
003AD064 2019-03-28 12:10:08 21 21 21.6
003AD064 2019-03-28 11:40:31 20.9 21 21.6
003AD064 2019-03-28 11:10:55 20.9 21 21.6
003AD064 2019-03-28 10:41:18 20.9 21 21.3
003AD064 2019-03-28 10:11:41 20.9 20 19.9
003AD064 2019-03-28 09:42:06 20.9 20 19.8
003AD064 2019-03-28 09:12:28 20.8 20 20
003AD064 2019-03-28 08:42:50 20.8 20 20.3
003AD064 2019-03-28 08:13:14 20.8 19 20.6
003AD064 2019-03-28 07:43:38 20.8 19 20.3
003AD064 2019-03-28 07:14:00 20.7 19 20.3
003AD064 2019-03-28 06:44:24 20.8 19 20.4
003AD064 2019-03-28 06:14:47 20.8 19 20.4
003AD064 2019-03-28 05:45:11 20.8 19 20.3
003AD064 2019-03-28 05:15:34 20.8 19 20.4
003AD064 2019-03-28 04:45:57 20.8 19 20.3
003AD064 2019-03-28 04:16:21 20.8 18 20.5
003AD064 2019-03-28 03:46:45 20.8 18 20.4
003AD064 2019-03-28 03:17:08 20.8 18 20.9
003AD064 2019-03-28 02:47:30 20.8 18 20.9
003AD064 2019-03-28 02:17:54 20.9 18 20.7
003AD064 2019-03-28 01:48:17 20.9 18 20.7
003AD064 2019-03-28 01:18:40 20.9 17 20.6
003AD064 2019-03-28 00:49:02 20.9 17 18.8
003AD064 2019-03-28 00:19:26 21 17 20.6
003AD064 2019-03-27 23:49:50 21 17 21.8
003AD064 2019-03-27 23:20:12 21 17 22.8
003AD064 2019-03-27 22:50:34 21 16 23.6
003AD064 2019-03-27 22:20:56 21 16 23.6
003AD064 2019-03-27 21:51:19 21.1 16 23.6
003AD064 2019-03-27 21:21:41 21.1 16 23.6
003AD064 2019-03-27 20:52:03 21.1 16 23.5
003AD064 2019-03-27 20:22:26 21.1 16 23.4
003AD064 2019-03-27 19:52:49 21.1 16 23.3
003AD064 2019-03-27 19:23:11 21.2 15 23.5
003AD064 2019-03-27 18:53:35 21.2 15 23.5
003AD064 2019-03-27 18:23:58 21.3 15 23.5
003AD064 2019-03-27 17:54:21 21.3 15 23.6
003AD064 2019-03-27 17:24:45 21.3 16 23.7
003AD064 2019-03-27 16:55:08 21.3 16 23.7
003AD064 2019-03-27 16:24:59 21.3 16 24
003AD064 2019-03-27 15:55:22 21.3 16 24.1
003AD064 2019-03-27 15:25:48 21.2 16 24
003AD064 2019-03-27 14:56:09 21.2 16 24
003AD064 2019-03-27 14:26:32 21 16 24.1
003AD064 2019-03-27 13:56:56 21 16 24.1
003AD064 2019-03-27 13:27:20 20.9 16 24.3
003AD064 2019-03-27 12:57:42 20.9 15 24.5
003AD064 2019-03-27 12:28:06 20.9 15 24
003AD064 2019-03-27 11:58:31 20.8 15 23.5
003AD064 2019-03-27 11:28:55 20.8 15 22.8
003AD064 2019-03-27 10:59:21 20.7 15 22
003AD064 2019-03-27 10:29:41 20.7 15 22.2
003AD064 2019-03-27 10:00:04 20.7 15 22.5
003AD064 2019-03-27 09:30:30 20.7 14 22.6
003AD064 2019-03-27 09:00:52 20.7 14 22.5
003AD064 2019-03-27 08:31:16 20.6 14 22.4
003AD064 2019-03-27 08:01:40 20.7 14 22.6
003AD064 2019-03-27 07:32:04 20.7 14 22.4
003AD064 2019-03-27 07:02:27 20.7 14 22.8
003AD064 2019-03-27 06:32:50 20.7 14 22.9
003AD064 2019-03-27 06:03:13 20.7 14 23.1
003AD064 2019-03-27 05:33:36 20.7 14 23
003AD064 2019-03-27 05:04:01 20.7 14 22.9
003AD064 2019-03-27 04:34:24 20.7 14 23
003AD064 2019-03-27 04:04:46 20.7 14 22.8
003AD064 2019-03-27 03:35:10 20.7 14 22.8
003AD064 2019-03-27 03:05:34 20.8 14 22.8
003AD064 2019-03-27 02:35:57 20.8 14 22.7
003AD064 2019-03-27 02:06:20 20.8 14 22.7
003AD064 2019-03-27 01:36:43 20.8 14 22.5
003AD064 2019-03-27 01:07:06 20.9 14 22.3
003AD064 2019-03-27 00:37:30 20.9 14 22.1
003AD064 2019-03-27 00:07:52 21 14 21.8
003AD064 2019-03-26 23:38:16 21 14 21.8
003AD064 2019-03-26 23:08:38 21 14 21.7
003AD064 2019-03-26 22:39:00 21.1 14 21.5
003AD064 2019-03-26 22:09:24 21.1 14 21.4
003AD064 2019-03-26 21:39:47 21.2 14 21.4
003AD064 2019-03-26 21:10:09 21.2 13 21.4
003AD064 2019-03-26 20:40:31 21.2 13 21.4
003AD064 2019-03-26 20:10:53 21.2 13 21.3
003AD064 2019-03-26 19:41:16 21.2 13 21.7
003AD064 2019-03-26 19:11:38 21.2 13 21.6
003AD064 2019-03-26 18:42:01 21.2 13 21.7
003AD064 2019-03-26 18:12:23 21.3 13 21.6
003AD064 2019-03-26 17:42:47 21.3 14 21.4
003AD064 2019-03-26 17:13:09 21.3 14 21.7
003AD064 2019-03-26 16:43:33 21.3 14 22
003AD064 2019-03-26 16:13:57 21.3 14 21.9
003AD064 2019-03-26 15:43:47 21.3 15 22.8
003AD064 2019-03-26 15:14:08 21.1 15 23.6
003AD064 2019-03-26 14:44:31 21 15 23.7
003AD064 2019-03-26 14:14:53 20.9 15 23.7
003AD064 2019-03-26 13:45:15 20.8 15 23.8
003AD064 2019-03-26 13:15:39 20.7 16 23.9
003AD064 2019-03-26 12:46:01 20.6 16 24
003AD064 2019-03-26 12:16:24 20.6 16 24
003AD064 2019-03-26 11:46:46 20.6 16 24.2
003AD064 2019-03-26 11:17:08 20.6 17 24.3
003AD064 2019-03-26 10:47:31 20.6 17 24.3
003AD064 2019-03-26 10:17:54 20.6 18 24.3
003AD064 2019-03-26 09:48:17 20.6 18 24.3
003AD064 2019-03-26 09:18:41 20.6 18 24.5
003AD064 2019-03-26 08:49:04 20.6 19 24.5
003AD064 2019-03-26 08:19:27 20.6 19 24.6
003AD064 2019-03-26 07:49:48 20.6 20 24.5
003AD064 2019-03-26 07:20:11 20.6 20 24.5
003AD064 2019-03-26 06:50:32 20.6 20 24.6
003AD064 2019-03-26 06:20:54 20.6 20 24.6
003AD064 2019-03-26 05:51:19 20.6 20 24.6
003AD064 2019-03-26 05:21:42 20.6 20 24.4
003AD064 2019-03-26 04:52:06 20.6 20 24.3
003AD064 2019-03-26 04:22:29 20.6 20 24.1
003AD064 2019-03-26 03:52:53 20.6 20 23.5
003AD064 2019-03-26 03:23:16 20.7 20 23.5
003AD064 2019-03-26 02:53:40 20.7 20 22.8
003AD064 2019-03-26 02:24:06 20.7 20 22.7
003AD064 2019-03-26 01:54:31 20.7 20 22.7
003AD064 2019-03-26 01:24:55 20.7 20 23.3
003AD064 2019-03-26 00:55:20 20.7 20 23.2
003AD064 2019-03-26 00:25:44 20.7 20 23.1
003AD064 2019-03-25 23:56:07 20.8 20 23.1
003AD064 2019-03-25 23:26:30 20.8 20 22.7
003AD064 2019-03-25 22:56:51 20.8 20 22.5
003AD064 2019-03-25 22:27:13 20.8 20 22.4
003AD064 2019-03-25 21:57:34 20.9 20 22.2
003AD064 2019-03-25 21:27:55 20.9 20 22.2
003AD064 2019-03-25 20:58:17 20.9 20 21.8
003AD064 2019-03-25 20:28:37 20.9 20 22.6
003AD064 2019-03-25 19:58:59 20.9 20 22.4
003AD064 2019-03-25 19:29:21 20.9 20 22.2
003AD064 2019-03-25 18:59:44 20.9 20 22
003AD064 2019-03-25 18:30:05 21 20 21.8
003AD064 2019-03-25 18:00:26 21 21 21.8
003AD064 2019-03-25 17:30:49 21.1 22 21.6
003AD064 2019-03-25 17:01:11 21.1 23 21.8
003AD064 2019-03-25 16:31:35 21.1 23 22
003AD064 2019-03-25 16:01:58 21 23 22.5
003AD064 2019-03-25 15:32:20 21 23 22.5
003AD064 2019-03-25 15:02:07 21 24 23.6
003AD064 2019-03-25 14:32:29 21 24 23.7
003AD064 2019-03-25 14:02:50 21 24 23.8
003AD064 2019-03-25 13:33:13 20.9 24 23.1
003AD064 2019-03-25 13:03:34 20.8 24 23.4
003AD064 2019-03-25 12:33:57 20.7 23 23.5
003AD064 2019-03-25 12:04:19 20.7 23 23.7
003AD064 2019-03-25 11:34:42 20.7 24 23.8
003AD064 2019-03-25 11:05:04 20.7 24 23.8
003AD064 2019-03-25 10:35:27 20.5 24 23.9
003AD064 2019-03-25 10:05:50 20.4 24 24
003AD064 2019-03-25 09:36:12 20.3 23 24.2
003AD064 2019-03-25 09:06:34 20.3 23 24.5
003AD064 2019-03-25 08:36:56 20.3 23 23.9
003AD064 2019-03-25 08:07:18 20.2 23 24.1
003AD064 2019-03-25 07:37:39 20.3 23 24.7
003AD064 2019-03-25 07:08:00 20.3 23 24.9
003AD064 2019-03-25 06:38:22 20.3 23 25
003AD064 2019-03-25 06:08:44 20.3 23 25
003AD064 2019-03-25 05:39:06 20.3 23 25.2
003AD064 2019-03-25 05:09:28 20.3 23 25.2
003AD064 2019-03-25 04:39:50 20.3 23 25
003AD064 2019-03-25 04:10:12 20.4 23 24.8
003AD064 2019-03-25 03:40:35 20.4 23 24.9
003AD064 2019-03-25 03:10:57 20.3 23 24.7
003AD064 2019-03-25 02:41:19 20.4 23 24.3
003AD064 2019-03-25 02:11:42 20.4 23 24.3
003AD064 2019-03-25 01:42:04 20.5 23 24.6
003AD064 2019-03-25 01:12:27 20.5 23 24.7
003AD064 2019-03-25 00:42:48 20.5 23 24.6
003AD064 2019-03-25 00:13:09 20.6 23 24.7
003AD064 2019-03-24 23:43:30 20.6 23 24.6
003AD064 2019-03-24 23:13:51 20.7 23 24.6
003AD064 2019-03-24 22:44:13 20.7 23 24.6
003AD064 2019-03-24 22:14:34 20.8 23 24.7
003AD064 2019-03-24 21:44:54 20.8 23 24.7
003AD064 2019-03-24 21:15:16 20.8 23 24.7
003AD064 2019-03-24 20:45:38 20.9 23 24.5
003AD064 2019-03-24 20:16:00 20.9 23 24.6
003AD064 2019-03-24 19:46:21 20.9 23 24.5
003AD064 2019-03-24 19:16:43 21 23 24.1
003AD064 2019-03-24 18:47:06 21 23 24
003AD064 2019-03-24 18:17:28 21 23 23.8
003AD064 2019-03-24 17:47:50 21 23 23.9
003AD064 2019-03-24 17:18:11 21 23 23.7
003AD064 2019-03-24 16:48:33 20.9 23 23.8
003AD064 2019-03-24 16:18:55 20.8 23 23.8
003AD064 2019-03-24 15:49:16 20.7 24 24
003AD064 2019-03-24 15:19:37 20.6 24 23.9
003AD064 2019-03-24 14:49:59 20.4 24 24
003AD064 2019-03-24 14:19:45 20.3 23 24.2
003AD064 2019-03-24 13:50:06 20.3 23 24
003AD064 2019-03-24 13:20:28 20.3 23 24
003AD064 2019-03-24 12:50:48 20.3 23 24
003AD064 2019-03-24 12:21:09 20.3 23 23.9
003AD064 2019-03-24 11:51:30 20.3 23 24
003AD064 2019-03-24 11:21:51 20.3 23 23.9
003AD064 2019-03-24 10:52:12 20.3 23 24
003AD064 2019-03-24 10:22:32 20.3 23 24.1
003AD064 2019-03-24 09:52:53 20.3 23 24.1
003AD064 2019-03-24 09:23:14 20.3 23 23.9
003AD064 2019-03-24 08:53:34 20.2 23 24
003AD064 2019-03-24 08:23:55 20.2 23 23.9
003AD064 2019-03-24 07:54:16 20.3 23 23.9
003AD064 2019-03-24 07:24:37 20.3 23 23.9
003AD064 2019-03-24 06:54:58 20.2 23 23.9
003AD064 2019-03-24 06:25:19 20.3 23 23.8
003AD064 2019-03-24 05:55:39 20.3 23 23.9
003AD064 2019-03-24 05:26:00 20.3 23 24.1
003AD064 2019-03-24 04:56:21 20.3 23 24.2
003AD064 2019-03-24 04:26:42 20.3 23 24.4
003AD064 2019-03-24 03:57:03 20.3 23 24.2
003AD064 2019-03-24 03:27:26 20.3 23 24.4
003AD064 2019-03-24 02:57:46 20.3 23 24.2
003AD064 2019-03-24 02:28:07 20.3 23 24.2
003AD064 2019-03-24 01:58:28 20.3 23 23.9
003AD064 2019-03-24 01:28:51 20.3 23 23.9
003AD064 2019-03-24 00:59:13 20.3 23 23.9
003AD064 2019-03-24 00:29:35 20.3 23 23.7
003AD064 2019-03-23 23:59:58 20.3 22 23.8
003AD064 2019-03-23 23:30:21 20.3 22 23.6
003AD064 2019-03-23 23:00:42 20.3 22 23.7
003AD064 2019-03-23 22:31:03 20.3 22 24.2
003AD064 2019-03-23 22:01:26 20.3 22 24.1
003AD064 2019-03-23 21:31:47 20.4 22 24.2
003AD064 2019-03-23 21:02:08 20.4 22 24.3
003AD064 2019-03-23 20:32:31 20.4 22 24.4
003AD064 2019-03-23 20:02:53 20.4 22 24.4
003AD064 2019-03-23 19:33:15 20.4 22 24.3
003AD064 2019-03-23 19:03:37 20.4 21 24.3
003AD064 2019-03-23 18:33:59 20.4 21 24.3
003AD064 2019-03-23 18:04:22 20.4 21 24.4
003AD064 2019-03-23 17:34:44 20.4 21 24.2
003AD064 2019-03-23 17:05:06 20.4 21 24.2
003AD064 2019-03-23 16:35:28 20.4 21 23.9
003AD064 2019-03-23 16:05:49 20.4 21 23.8
003AD064 2019-03-23 15:36:10 20.4 21 24
003AD064 2019-03-23 15:06:32 20.4 21 23.6
003AD064 2019-03-23 14:36:53 20.4 21 23.7
003AD064 2019-03-23 14:07:14 20.4 21 23.6
003AD064 2019-03-23 13:37:02 20.4 20 23.4
003AD064 2019-03-23 13:07:23 20.4 20 23.4
003AD064 2019-03-23 12:37:45 20.4 20 23.3
003AD064 2019-03-23 12:08:08 20.4 20 23.2
003AD064 2019-03-23 11:38:30 20.4 20 23.3
003AD064 2019-03-23 11:08:51 20.4 20 23.1
003AD064 2019-03-23 10:39:12 20.4 20 22.2
003AD064 2019-03-23 10:09:34 20.4 20 22.2
003AD064 2019-03-23 09:39:55 20.5 20 22.1
003AD064 2019-03-23 09:10:16 20.5 20 21.6
003AD064 2019-03-23 08:40:37 20.5 20 21.4
003AD064 2019-03-23 08:11:00 20.5 20 22.4
003AD064 2019-03-23 07:41:20 20.5 20 22.2
003AD064 2019-03-23 07:11:41 20.5 20 22.1
003AD064 2019-03-23 06:42:01 20.5 19 21.9
003AD064 2019-03-23 06:12:25 20.5 19 21.7
003AD064 2019-03-23 05:42:45 20.5 19 21.6
003AD064 2019-03-23 05:13:06 20.5 19 21.3
003AD064 2019-03-23 04:43:27 20.6 19 21.2
003AD064 2019-03-23 04:13:50 20.6 19 21
003AD064 2019-03-23 03:44:12 20.6 19 20.7
003AD064 2019-03-23 03:14:33 20.7 19 20.8
003AD064 2019-03-23 02:44:57 20.7 19 20.6
003AD064 2019-03-23 02:15:19 20.8 18 20.6
003AD064 2019-03-23 01:45:42 20.8 18 20.4
003AD064 2019-03-23 01:16:04 20.8 18 20.2
003AD064 2019-03-23 00:46:25 20.9 18 20.1
003AD064 2019-03-23 00:16:48 21 18 20.2
003AD064 2019-03-22 23:47:09 21 18 20.3
003AD064 2019-03-22 23:17:31 21.1 18 20.2
003AD064 2019-03-22 22:47:53 21.2 18 20.2
003AD064 2019-03-22 22:18:15 21.3 18 20.2
003AD064 2019-03-22 21:48:36 21.3 18 20.1
003AD064 2019-03-22 21:18:59 21.3 17 20
003AD064 2019-03-22 20:49:21 21.3 17 20.2
003AD064 2019-03-22 20:19:43 21.3 17 20.2
003AD064 2019-03-22 19:50:04 21.3 17 18.3
003AD064 2019-03-22 19:20:24 21.3 17 18.1
003AD064 2019-03-22 18:50:44 21.3 17 18.2
003AD064 2019-03-22 18:21:04 21.2 16 18.2
003AD064 2019-03-22 17:51:24 21.2 16 18.3
003AD064 2019-03-22 17:21:42 21.2 16 18.5
003AD064 2019-03-22 16:52:03 21.1 16 18.7
003AD064 2019-03-22 16:22:23 21.1 16 20.5
003AD064 2019-03-22 15:52:41 21 17 20.7
003AD064 2019-03-22 15:23:01 20.9 17 20.8
003AD064 2019-03-22 14:53:21 20.8 17 20.7
003AD064 2019-03-22 14:23:43 20.7 18 20.9
003AD064 2019-03-22 13:54:03 20.7 18 21
003AD064 2019-03-22 13:24:24 20.7 19 21.2
003AD064 2019-03-22 12:54:15 20.7 19 21.5
003AD064 2019-03-22 12:24:34 20.7 20 21.5
003AD064 2019-03-22 11:54:54 20.7 20 21.5
003AD064 2019-03-22 11:25:19 20.7 20 21.7
003AD064 2019-03-22 10:55:37 20.7 21 22
003AD064 2019-03-22 10:25:55 20.6 21 22.3
003AD064 2019-03-22 09:56:15 20.6 22 22.4
003AD064 2019-03-22 09:26:35 20.6 22 22.5
003AD064 2019-03-22 08:56:55 20.6 23 22.4
003AD064 2019-03-22 08:27:17 20.6 23 22.4
003AD064 2019-03-22 07:57:39 20.6 24 22.5
003AD064 2019-03-22 07:28:01 20.6 24 23.3
003AD064 2019-03-22 06:58:22 20.6 24 23.3
003AD064 2019-03-22 06:28:47 20.6 25 23.4
003AD064 2019-03-22 05:59:07 20.6 25 23.6
003AD064 2019-03-22 05:29:30 20.6 25 23.6
003AD064 2019-03-22 04:59:53 20.7 25 23.7
003AD064 2019-03-22 04:30:15 20.7 26 22.9
003AD064 2019-03-22 04:00:37 20.7 26 22.7
003AD064 2019-03-22 03:30:58 20.7 26 23.5
003AD064 2019-03-22 03:01:20 20.7 26 23.5
003AD064 2019-03-22 02:31:44 20.7 27 23.3
003AD064 2019-03-22 02:02:06 20.7 27 23.5
003AD064 2019-03-22 01:32:30 20.7 27 23.5
003AD064 2019-03-22 01:02:53 20.8 27 23.5
003AD064 2019-03-22 00:33:18 20.8 28 23.3
003AD064 2019-03-22 00:03:43 20.8 28 23.3
003AD064 2019-03-21 23:34:07 20.8 28 23.5
003AD064 2019-03-21 23:04:29 20.9 28 23.5
003AD064 2019-03-21 22:34:52 20.9 28 23.3
003AD064 2019-03-21 22:05:14 20.9 28 23
003AD064 2019-03-21 21:35:36 20.9 28 23.1
003AD064 2019-03-21 21:05:59 20.9 28 23
003AD064 2019-03-21 20:36:20 21 28 23.1
003AD064 2019-03-21 20:06:41 21 28 23.1
003AD064 2019-03-21 19:37:02 21 28 23.1
003AD064 2019-03-21 19:07:26 21 27 22.4
003AD064 2019-03-21 18:37:47 21.1 27 22.5
003AD064 2019-03-21 18:08:09 21.1 27 22.4
003AD064 2019-03-21 17:38:31 21.2 27 22.5
003AD064 2019-03-21 17:08:53 21.2 27 22.7
003AD064 2019-03-21 16:39:15 21.2 27 22.8
003AD064 2019-03-21 16:09:37 21.3 28 23
003AD064 2019-03-21 15:39:57 21.3 28 23.7
003AD064 2019-03-21 15:10:19 21.2 28 23.3
003AD064 2019-03-21 14:40:40 21.1 27 23.4
003AD064 2019-03-21 14:11:01 21.1 27 23.5
003AD064 2019-03-21 13:41:23 21 26 23.4
003AD064 2019-03-21 13:11:44 20.9 26 24
003AD064 2019-03-21 12:42:09 20.9 25 24
003AD064 2019-03-21 12:11:50 20.8 25 24.2
003AD064 2019-03-21 11:42:10 20.8 25 24.2
003AD064 2019-03-21 11:12:32 20.7 25 24
003AD064 2019-03-21 10:42:52 20.7 25 24.1
003AD064 2019-03-21 10:13:16 20.6 25 24.3
003AD064 2019-03-21 09:43:35 20.6 25 24.3
003AD064 2019-03-21 09:13:55 20.6 25 24.4
003AD064 2019-03-21 08:44:16 20.6 25 24.5
003AD064 2019-03-21 08:14:36 20.6 25 24.7
003AD064 2019-03-21 07:44:56 20.6 25 24.9
003AD064 2019-03-21 07:15:17 20.6 25 24.9
003AD064 2019-03-21 06:45:37 20.6 25 24.8
003AD064 2019-03-21 06:15:57 20.6 25 24.9
003AD064 2019-03-21 05:46:19 20.6 25 24.8
003AD064 2019-03-21 05:16:39 20.6 25 24.8
003AD064 2019-03-21 04:47:01 20.6 25 24.6
003AD064 2019-03-21 04:17:21 20.6 25 24.5
003AD064 2019-03-21 03:47:40 20.6 25 24
003AD064 2019-03-21 03:18:00 20.6 25 23.9
003AD064 2019-03-21 02:48:23 20.6 25 23.8
003AD064 2019-03-21 02:18:44 20.6 26 23.8
003AD064 2019-03-21 01:49:06 20.6 26 23.7
003AD064 2019-03-21 01:19:27 20.6 26 23
003AD064 2019-03-21 00:49:47 20.7 26 23
003AD064 2019-03-21 00:20:08 20.6 26 22.8
003AD064 2019-03-20 23:50:30 20.7 26 22.7
003AD064 2019-03-20 23:20:52 20.7 26 23.3
003AD064 2019-03-20 22:51:14 20.7 26 23.3
003AD064 2019-03-20 22:21:35 20.7 26 23.3
003AD064 2019-03-20 21:51:56 20.7 26 23.3
003AD064 2019-03-20 21:22:17 20.7 26 23.1
003AD064 2019-03-20 20:52:37 20.8 26 23.8
003AD064 2019-03-20 20:22:58 20.8 26 23.5
003AD064 2019-03-20 19:53:19 20.8 26 23.3
003AD064 2019-03-20 19:23:40 20.8 26 23.8
003AD064 2019-03-20 18:53:59 20.9 25 23.7
003AD064 2019-03-20 18:24:19 20.9 25 23.6
003AD064 2019-03-20 17:54:39 21 25 23.4
003AD064 2019-03-20 17:25:00 21 25 23.5
003AD064 2019-03-20 16:55:21 21 25 23.4
003AD064 2019-03-20 16:25:42 21.1 25 23.4
003AD064 2019-03-20 15:56:02 21.1 25 23.5
003AD064 2019-03-20 15:26:22 21.1 26 23.6
003AD064 2019-03-20 14:56:44 21 25 23.6
003AD064 2019-03-20 14:27:04 21 25 23.7
003AD064 2019-03-20 13:57:24 21 25 23.7
003AD064 2019-03-20 13:27:44 20.9 25 23.8
003AD064 2019-03-20 12:58:04 20.9 25 23.8
003AD064 2019-03-20 12:28:25 20.9 25 23.8
003AD064 2019-03-20 11:58:46 20.8 25 23.8
003AD064 2019-03-20 11:28:34 20.8 25 23.2
003AD064 2019-03-20 10:58:56 20.7 25 23.4
003AD064 2019-03-20 10:29:17 20.7 25 23.3
003AD064 2019-03-20 09:59:43 20.5 24 23.2
003AD064 2019-03-20 09:30:00 20.5 24 23.3
003AD064 2019-03-20 09:00:20 20.5 25 22.5
003AD064 2019-03-20 08:30:43 20.5 25 22.7
003AD064 2019-03-20 08:01:02 20.5 26 22.7
003AD064 2019-03-20 07:31:22 20.5 26 21.7
003AD064 2019-03-20 07:01:42 20.5 26 21.7
003AD064 2019-03-20 06:32:02 20.5 26 21.7
003AD064 2019-03-20 06:02:23 20.5 26 21.7
003AD064 2019-03-20 05:32:43 20.5 27 21.5
003AD064 2019-03-20 05:03:03 20.5 27 21.3
003AD064 2019-03-20 04:33:24 20.6 27 21.5
003AD064 2019-03-20 04:03:44 20.6 27 21.4
003AD064 2019-03-20 03:34:04 20.6 27 21.1
003AD064 2019-03-20 03:04:24 20.6 27 21.1
003AD064 2019-03-20 02:34:44 20.6 27 20.9
003AD064 2019-03-20 02:05:05 20.6 27 20.9
003AD064 2019-03-20 01:35:26 20.6 28 21
003AD064 2019-03-20 01:05:45 20.7 28 21.1
003AD064 2019-03-20 00:36:05 20.7 28 21
003AD064 2019-03-20 00:06:27 20.7 28 21.5
003AD064 2019-03-19 23:36:48 20.7 28 21.7
003AD064 2019-03-19 23:07:10 20.7 28 21.7
003AD064 2019-03-19 22:37:31 20.7 28 21.6
003AD064 2019-03-19 22:07:51 20.8 28 21.8
003AD064 2019-03-19 21:38:12 20.8 28 21.8
003AD064 2019-03-19 21:08:33 20.8 28 21.9
003AD064 2019-03-19 20:38:54 20.9 29 22.4
003AD064 2019-03-19 20:09:15 20.9 29 22.3
003AD064 2019-03-19 19:39:36 20.9 29 22.4
003AD064 2019-03-19 19:09:57 20.9 29 22.6
003AD064 2019-03-19 18:40:18 21.1 29 22.9
003AD064 2019-03-19 18:10:38 21.1 29 23.2
003AD064 2019-03-19 17:40:59 21.2 30 23.4
003AD064 2019-03-19 17:11:20 21.2 30 23.7
003AD064 2019-03-19 16:41:41 21.2 30 23.9
003AD064 2019-03-19 16:12:02 21.1 30 23.9
003AD064 2019-03-19 15:42:24 21.1 29 24.1
003AD064 2019-03-19 15:12:45 21.1 29 24.4
003AD064 2019-03-19 14:43:06 21.1 29 24.4
003AD064 2019-03-19 14:13:29 21.1 29 24.6
003AD064 2019-03-19 13:43:51 21.1 29 24.8
003AD064 2019-03-19 13:14:13 21 29 24.8
003AD064 2019-03-19 12:44:34 21 29 24.8
003AD064 2019-03-19 12:14:56 20.9 29 25
003AD064 2019-03-19 11:45:18 20.9 29 24.9
003AD064 2019-03-19 11:15:39 20.8 29 25
003AD064 2019-03-19 10:45:27 20.7 28 25.1
003AD064 2019-03-19 10:15:46 20.7 28 25
003AD064 2019-03-19 09:46:08 20.6 27 25.2
003AD064 2019-03-19 09:16:30 20.6 27 25.2
003AD064 2019-03-19 08:46:51 20.5 27 25.1
003AD064 2019-03-19 08:17:13 20.5 27 25
003AD064 2019-03-19 07:47:34 20.5 27 24.9
003AD064 2019-03-19 07:17:56 20.5 27 24.9
003AD064 2019-03-19 06:48:17 20.5 27 24.9
003AD064 2019-03-19 06:18:38 20.5 27 24.7
003AD064 2019-03-19 05:49:01 20.6 27 24.8
003AD064 2019-03-19 05:19:23 20.5 27 24.6
003AD064 2019-03-19 04:49:46 20.6 27 24.5
003AD064 2019-03-19 04:20:08 20.6 27 24.6
003AD064 2019-03-19 03:50:30 20.5 27 24.5
003AD064 2019-03-19 03:20:50 20.6 27 24.2
003AD064 2019-03-19 02:51:11 20.6 27 24.1
003AD064 2019-03-19 02:21:33 20.6 27 23.9
003AD064 2019-03-19 01:51:54 20.6 27 23.7
003AD064 2019-03-19 01:22:14 20.6 27 23.7
003AD064 2019-03-19 00:52:34 20.6 27 23.8
003AD064 2019-03-19 00:22:55 20.6 27 23.6
003AD064 2019-03-18 23:53:17 20.6 27 23.5
003AD064 2019-03-18 23:23:37 20.6 27 23.3
003AD064 2019-03-18 22:53:58 20.7 27 23.1
003AD064 2019-03-18 22:24:19 20.7 27 22.9
003AD064 2019-03-18 21:54:41 20.7 27 22.7
003AD064 2019-03-18 21:25:01 20.7 27 22.5
003AD064 2019-03-18 20:55:21 20.7 27 22.3
003AD064 2019-03-18 20:25:42 20.7 27 22.4
003AD064 2019-03-18 19:56:03 20.7 27 22.3
003AD064 2019-03-18 19:26:23 20.7 26 22.4
003AD064 2019-03-18 18:56:44 20.8 26 22.5
003AD064 2019-03-18 18:27:06 20.8 26 22.1
003AD064 2019-03-18 17:57:26 20.9 27 22.1
003AD064 2019-03-18 17:27:47 20.9 27 21.6
003AD064 2019-03-18 16:58:09 20.9 27 21.6
003AD064 2019-03-18 16:28:30 20.9 27 21.5
003AD064 2019-03-18 15:58:51 20.9 27 21.1
003AD064 2019-03-18 15:29:12 20.8 27 21
003AD064 2019-03-18 14:59:32 20.8 27 20.9
003AD064 2019-03-18 14:29:54 20.8 27 21
003AD064 2019-03-18 14:00:15 20.8 27 21
003AD064 2019-03-18 13:30:36 20.7 27 20.6
003AD064 2019-03-18 13:00:57 20.7 27 20.6
003AD064 2019-03-18 12:31:18 20.7 27 20.2
003AD064 2019-03-18 12:01:41 20.7 27 20.1
003AD064 2019-03-18 11:32:03 20.7 27 20
003AD064 2019-03-18 11:02:25 20.7 27 19.7
003AD064 2019-03-18 10:32:50 20.6 27 19.8
003AD064 2019-03-18 10:02:38 20.6 27 21.4
003AD064 2019-03-18 09:32:59 20.6 27 21.1
003AD064 2019-03-18 09:03:20 20.6 27 21.1
003AD064 2019-03-18 08:33:42 20.6 27 20.7
003AD064 2019-03-18 08:04:03 20.6 27 20.9
003AD064 2019-03-18 07:34:25 20.6 27 20.7
003AD064 2019-03-18 07:04:45 20.6 27 20.5
003AD064 2019-03-18 06:35:07 20.6 27 20.5
003AD064 2019-03-18 06:05:28 20.6 27 20.4
003AD064 2019-03-18 05:35:48 20.6 27 20.6
003AD064 2019-03-18 05:06:11 20.6 27 20.6
003AD064 2019-03-18 04:36:31 20.6 27 20.5
003AD064 2019-03-18 04:06:53 20.6 27 20.6
003AD064 2019-03-18 03:37:15 20.6 27 20.4
003AD064 2019-03-18 03:07:35 20.5 27 20.6
003AD064 2019-03-18 02:37:56 20.5 26 20.4
003AD064 2019-03-18 02:08:17 20.6 26 20.3
003AD064 2019-03-18 01:38:37 20.6 26 20.4
003AD064 2019-03-18 01:08:56 20.6 26 20.2
003AD064 2019-03-18 00:39:16 20.6 26 20.2
003AD064 2019-03-18 00:09:35 20.6 26 20.1
003AD064 2019-03-17 23:39:56 20.5 26 20
003AD064 2019-03-17 23:10:17 20.6 26 20.5
003AD064 2019-03-17 22:40:35 20.6 26 20.7
003AD064 2019-03-17 22:10:55 20.6 26 19.3
003AD064 2019-03-17 21:41:15 20.6 26 19.3
003AD064 2019-03-17 21:11:35 20.6 26 19.3
003AD064 2019-03-17 20:41:53 20.6 26 19.5
003AD064 2019-03-17 20:12:12 20.5 26 19.6
003AD064 2019-03-17 19:42:32 20.6 26 19.6
003AD064 2019-03-17 19:12:50 20.5 26 19.8
003AD064 2019-03-17 18:43:09 20.5 26 19.7
003AD064 2019-03-17 18:13:28 20.6 26 19.6
003AD064 2019-03-17 17:43:48 20.6 26 19.7
003AD064 2019-03-17 17:14:07 20.6 26 19.5
003AD064 2019-03-17 16:44:26 20.6 26 19.1
003AD064 2019-03-17 16:14:46 20.6 26 20.9
003AD064 2019-03-17 15:45:05 20.6 26 20.8
003AD064 2019-03-17 15:15:28 20.6 26 20.8
003AD064 2019-03-17 14:45:45 20.6 26 20.7
003AD064 2019-03-17 14:16:06 20.6 26 20.8
003AD064 2019-03-17 13:46:26 20.6 26 20.8
003AD064 2019-03-17 13:16:47 20.6 26 20.6
003AD064 2019-03-17 12:47:13 20.6 26 20.7
003AD064 2019-03-17 12:17:31 20.6 26 20.7
003AD064 2019-03-17 11:47:55 20.6 26 20.9
003AD064 2019-03-17 11:18:15 20.6 26 21.2
003AD064 2019-03-17 10:48:37 20.6 26 20.9
003AD064 2019-03-17 10:18:58 20.6 26 20.8
003AD064 2019-03-17 09:49:20 20.6 26 20.6
003AD064 2019-03-17 09:19:09 20.6 26 20.8
003AD064 2019-03-17 08:49:27 20.6 26 20.6
003AD064 2019-03-17 08:19:47 20.6 26 20.6
003AD064 2019-03-17 07:50:07 20.6 26 20.5
003AD064 2019-03-17 07:20:27 20.6 26 20.4
003AD064 2019-03-17 06:50:48 20.6 26 20.4
003AD064 2019-03-17 06:21:11 20.6 26 20.5
003AD064 2019-03-17 05:51:30 20.6 27 20.5
003AD064 2019-03-17 05:21:52 20.6 27 20.5
003AD064 2019-03-17 04:52:10 20.6 27 21.8
003AD064 2019-03-17 04:22:31 20.6 27 20.6
003AD064 2019-03-17 03:52:53 20.6 27 20.7
003AD064 2019-03-17 03:23:19 20.6 27 20.7
003AD064 2019-03-17 02:53:37 20.6 27 20.7
003AD064 2019-03-17 02:23:59 20.6 27 20.9
003AD064 2019-03-17 01:54:20 20.6 27 20.9
003AD064 2019-03-17 01:24:41 20.6 27 21.1
003AD064 2019-03-17 00:55:01 20.6 27 21
003AD064 2019-03-17 00:25:21 20.6 26 21
003AD064 2019-03-16 23:55:42 20.6 26 21
003AD064 2019-03-16 23:26:02 20.6 26 20.7
003AD064 2019-03-16 22:56:23 20.6 26 20.6
003AD064 2019-03-16 22:26:44 20.6 26 20.5
003AD064 2019-03-16 21:57:04 20.6 26 20.5
003AD064 2019-03-16 21:27:25 20.6 26 21.8
003AD064 2019-03-16 20:57:46 20.6 26 21.6
003AD064 2019-03-16 20:28:07 20.6 26 21.6
003AD064 2019-03-16 19:58:28 20.6 26 21.5
003AD064 2019-03-16 19:28:50 20.6 26 21.5
003AD064 2019-03-16 18:59:10 20.6 26 21.5
003AD064 2019-03-16 18:29:32 20.6 26 22.6
003AD064 2019-03-16 17:59:53 20.6 26 22.5
003AD064 2019-03-16 17:30:15 20.7 26 22.5
003AD064 2019-03-16 17:00:37 20.6 26 22.5
003AD064 2019-03-16 16:31:00 20.6 26 21.5
003AD064 2019-03-16 16:01:20 20.6 26 21.4
003AD064 2019-03-16 15:31:42 20.6 26 21.4
003AD064 2019-03-16 15:02:09 20.6 26 21.5
003AD064 2019-03-16 14:32:27 20.6 26 21.4
003AD064 2019-03-16 14:02:49 20.6 26 21.3
003AD064 2019-03-16 13:33:11 20.6 26 21.4
003AD064 2019-03-16 13:03:33 20.6 26 21.3
003AD064 2019-03-16 12:33:55 20.6 26 21.4
003AD064 2019-03-16 12:04:16 20.6 26 21.3
003AD064 2019-03-16 11:34:38 20.6 26 21.2
003AD064 2019-03-16 11:04:59 20.6 26 21.2
003AD064 2019-03-16 10:35:21 20.6 26 21.2
003AD064 2019-03-16 10:05:41 20.7 26 21.2
003AD064 2019-03-16 09:36:02 20.6 26 21.2
003AD064 2019-03-16 09:06:23 20.9 26 19.8
003AD064 2019-03-16 09:05:13 20.7 26 19.9
003AD064 2019-03-16 08:35:34 20.6 26 20.2
003AD064 2019-03-16 08:05:54 20.6 26 20.2
003AD064 2019-03-16 07:36:14 20.7 26 20.3
003AD064 2019-03-16 07:06:35 20.7 26 20.4
003AD064 2019-03-16 06:36:58 20.6 26 18.8
003AD064 2019-03-16 06:07:19 20.7 26 18.9
003AD064 2019-03-16 05:37:42 20.6 26 19.1
003AD064 2019-03-16 05:08:04 20.7 26 19.1
003AD064 2019-03-16 04:38:25 20.6 26 19.1
003AD064 2019-03-16 04:08:46 20.6 26 19.1
003AD064 2019-03-16 03:39:08 20.6 26 19
003AD064 2019-03-16 03:09:29 20.6 26 18.8
003AD064 2019-03-16 02:39:49 20.7 26 18.7
003AD064 2019-03-16 02:10:10 20.6 26 18.7
003AD064 2019-03-16 01:40:30 20.7 26 18.3
003AD064 2019-03-16 01:10:48 20.6 26 18.8
003AD064 2019-03-16 00:41:09 20.7 26 18.8
003AD064 2019-03-16 00:11:29 20.7 26 18.9
003AD064 2019-03-15 23:41:50 20.7 26 19
003AD064 2019-03-15 23:12:11 20.7 26 19
003AD064 2019-03-15 22:42:32 20.7 27 19
003AD064 2019-03-15 22:12:53 20.7 27 18.8
003AD064 2019-03-15 21:43:14 20.8 27 19
003AD064 2019-03-15 21:13:35 20.8 26 18.9
003AD064 2019-03-15 20:43:57 20.8 26 18.6
003AD064 2019-03-15 20:14:18 20.8 26 20.3
003AD064 2019-03-15 19:44:40 20.8 26 20.3
003AD064 2019-03-15 19:15:02 20.8 26 20.4
003AD064 2019-03-15 18:45:24 20.8 26 20.4
003AD064 2019-03-15 18:15:45 20.8 26 20.3
003AD064 2019-03-15 17:46:06 20.8 26 20.4
003AD064 2019-03-15 17:16:28 20.8 26 20.4
003AD064 2019-03-15 16:46:49 20.8 26 20.5
003AD064 2019-03-15 16:17:13 20.8 26 20.5
003AD064 2019-03-15 15:47:32 20.8 26 20.6
003AD064 2019-03-15 15:17:53 20.8 26 20.9
003AD064 2019-03-15 14:48:12 20.8 26 21
003AD064 2019-03-15 14:18:32 20.8 26 21.1
003AD064 2019-03-15 13:48:53 20.8 26 21.1
003AD064 2019-03-15 13:19:12 20.8 26 21.4
003AD064 2019-03-15 12:49:33 20.8 26 21
003AD064 2019-03-15 12:19:53 20.7 26 21.1
003AD064 2019-03-15 11:50:14 20.7 26 21.2
003AD064 2019-03-15 11:20:34 20.7 26 21.5
003AD064 2019-03-15 10:50:55 20.7 25 21.6
003AD064 2019-03-15 10:21:15 20.7 25 21.8
003AD064 2019-03-15 09:51:37 20.7 25 22
003AD064 2019-03-15 09:21:57 20.6 25 22
003AD064 2019-03-15 08:52:18 20.8 24 21.9
003AD064 2019-03-15 08:51:09 20.6 25 22.1
003AD064 2019-03-15 08:21:30 20.6 24 21.2
003AD064 2019-03-15 07:51:50 20.6 24 21.2
003AD064 2019-03-15 07:22:13 20.6 24 21.2
003AD064 2019-03-15 06:52:32 20.6 24 21.3
003AD064 2019-03-15 06:22:54 20.6 24 21.3
003AD064 2019-03-15 05:53:15 20.7 24 21.1
003AD064 2019-03-15 05:23:36 20.6 24 21.1
003AD064 2019-03-15 04:53:56 20.6 24 21
003AD064 2019-03-15 04:24:17 20.7 24 21.1
003AD064 2019-03-15 03:54:37 20.7 24 20.9
003AD064 2019-03-15 03:24:58 20.7 24 20.9
003AD064 2019-03-15 02:55:17 20.7 24 21.2
003AD064 2019-03-15 02:25:39 20.6 24 21.1
003AD064 2019-03-15 01:56:00 20.7 24 21.3
003AD064 2019-03-15 01:26:21 20.7 24 21
003AD064 2019-03-15 00:56:43 20.7 24 21.1
003AD064 2019-03-15 00:27:04 20.7 24 20.9
003AD064 2019-03-14 23:57:24 20.7 23 20.9
003AD064 2019-03-14 23:27:45 20.7 23 20.5
003AD064 2019-03-14 22:58:07 20.7 23 20.4
003AD064 2019-03-14 22:28:30 20.8 23 20.1
003AD064 2019-03-14 21:58:49 20.8 23 19.7
003AD064 2019-03-14 21:29:10 20.8 23 19.7
003AD064 2019-03-14 20:59:32 20.8 23 19.8
003AD064 2019-03-14 20:29:54 20.8 24 19.4
003AD064 2019-03-14 20:00:13 20.8 23 19
003AD064 2019-03-14 19:30:34 20.8 23 19.2
003AD064 2019-03-14 19:00:55 20.9 23 18.6
003AD064 2019-03-14 18:31:16 20.9 23 18.2
003AD064 2019-03-14 18:01:37 20.9 23 18.1
003AD064 2019-03-14 17:31:58 20.9 23 17.8
003AD064 2019-03-14 17:02:18 20.9 23 17.8
003AD064 2019-03-14 16:32:41 20.9 23 18
003AD064 2019-03-14 16:03:03 20.9 23 17.9
003AD064 2019-03-14 15:33:25 20.9 23 18
003AD064 2019-03-14 15:03:47 20.9 23 19.8
003AD064 2019-03-14 14:34:09 20.9 23 19.3
003AD064 2019-03-14 14:04:30 20.9 23 19.4
003AD064 2019-03-14 13:34:52 20.9 24 19.1
003AD064 2019-03-14 13:05:13 20.9 23 19.1
003AD064 2019-03-14 12:35:35 20.8 23 19.1
003AD064 2019-03-14 12:05:54 20.8 22 19.1
003AD064 2019-03-14 11:36:15 20.8 22 19.2
003AD064 2019-03-14 11:06:36 20.8 22 19.2
003AD064 2019-03-14 10:36:57 20.7 22 19
003AD064 2019-03-14 10:07:18 20.7 21 19.2
003AD064 2019-03-14 09:37:40 20.7 21 19.4
003AD064 2019-03-14 09:08:04 20.6 20 19.4
003AD064 2019-03-14 08:38:21 20.6 20 19.4
003AD064 2019-03-14 05:10:22 20.6 18 19.6
003AD064 2019-03-14 04:40:44 20.6 18 19.5
003AD064 2019-03-14 04:11:05 20.6 18 19.7
003AD064 2019-03-14 03:41:26 20.6 18 19.7
003AD064 2019-03-14 03:11:48 20.6 18 17.3
003AD064 2019-03-14 02:42:10 20.6 18 17.1
003AD064 2019-03-14 02:12:32 20.6 17 19.5
003AD064 2019-03-14 01:42:52 20.6 17 21.1
003AD064 2019-03-14 01:13:14 20.6 17 21
003AD064 2019-03-14 00:43:36 20.6 17 21
003AD064 2019-03-14 00:13:58 20.6 17 20.9
003AD064 2019-03-13 23:44:21 20.6 17 20.9
003AD064 2019-03-13 23:14:43 20.6 17 21.2
003AD064 2019-03-13 22:45:06 20.6 17 21.2
003AD064 2019-03-13 22:15:28 20.7 17 21.2
003AD064 2019-03-13 21:45:52 20.7 16 21.1
003AD064 2019-03-13 21:16:14 20.7 16 21.1
003AD064 2019-03-13 20:46:38 20.7 16 21.2
003AD064 2019-03-13 20:17:03 20.7 16 21.2
003AD064 2019-03-13 19:47:24 20.7 16 21.2
003AD064 2019-03-13 19:17:46 20.8 16 21.2
003AD064 2019-03-13 18:48:12 20.8 16 21.3
003AD064 2019-03-13 18:18:30 20.8 16 21.3
003AD064 2019-03-13 17:48:52 20.9 16 21.3
003AD064 2019-03-13 17:19:14 20.9 16 21.4
003AD064 2019-03-13 16:49:35 20.9 16 21.2
003AD064 2019-03-13 16:19:58 20.9 16 21.2
003AD064 2019-03-13 15:50:18 20.9 16 21
003AD064 2019-03-13 15:20:39 20.8 16 21
003AD064 2019-03-13 14:51:00 20.8 16 21
003AD064 2019-03-13 14:21:21 20.8 16 21.1
003AD064 2019-03-13 13:51:43 20.8 16 19.6
003AD064 2019-03-13 13:22:02 20.8 16 17.2
003AD064 2019-03-13 12:52:22 20.8 16 17.3
003AD064 2019-03-13 12:22:41 20.8 16 17.4
003AD064 2019-03-13 11:53:01 20.7 16 17.4
003AD064 2019-03-13 11:23:23 20.7 16 17.5
003AD064 2019-03-13 10:53:45 20.7 16 16.7
003AD064 2019-03-13 10:24:06 20.6 16 16.7
003AD064 2019-03-13 09:54:29 20.5 16 16.2
003AD064 2019-03-13 09:24:51 20.4 15 16.3
003AD064 2019-03-13 08:55:13 20.3 15 16.4
003AD064 2019-03-13 08:25:39 20.3 15 16.2
003AD064 2019-03-13 07:55:56 20.4 15 16.5
003AD064 2019-03-13 07:25:39 20.4 15 16.8
003AD064 2019-03-13 06:56:02 20.4 15 17
003AD064 2019-03-13 06:26:21 20.4 15 17.1
003AD064 2019-03-13 05:56:41 20.4 15 17.1
003AD064 2019-03-13 05:27:02 20.4 15 17.1
003AD064 2019-03-13 04:57:23 20.4 16 17.2
003AD064 2019-03-13 04:27:45 20.4 16 17.3
003AD064 2019-03-13 03:58:07 20.4 16 17.9
003AD064 2019-03-13 03:28:28 20.4 16 17.9
003AD064 2019-03-13 02:58:49 20.5 16 17.9
003AD064 2019-03-13 02:29:11 20.5 16 18.3
003AD064 2019-03-13 01:59:33 20.5 16 18.2
003AD064 2019-03-13 01:29:56 20.5 16 20.2
003AD064 2019-03-13 01:00:18 20.5 16 20.1
003AD064 2019-03-13 00:30:40 20.5 16 20.2
003AD064 2019-03-13 00:01:02 20.5 16 20.3
003AD064 2019-03-12 23:31:24 20.5 16 20.3
003AD064 2019-03-12 23:01:45 20.6 16 20.2
003AD064 2019-03-12 22:32:06 20.6 16 20.5
003AD064 2019-03-12 22:02:26 20.6 16 20.5
003AD064 2019-03-12 21:32:46 20.6 16 21.7
003AD064 2019-03-12 21:03:07 20.6 16 22.8
003AD064 2019-03-12 20:33:27 20.6 16 22.8
003AD064 2019-03-12 20:03:47 20.6 16 23.6
003AD064 2019-03-12 19:34:06 20.7 16 24.2
003AD064 2019-03-12 19:04:27 20.7 16 24.8
003AD064 2019-03-12 18:34:46 20.7 16 25.3
003AD064 2019-03-12 18:05:07 20.7 16 25.7
003AD064 2019-03-12 17:35:27 20.7 16 26.1
003AD064 2019-03-12 17:05:49 20.7 16 26.5
003AD064 2019-03-12 16:36:09 20.7 16 26.9
003AD064 2019-03-12 16:06:29 20.7 16 27.2
003AD064 2019-03-12 15:36:50 20.7 16 27.4
003AD064 2019-03-12 15:07:11 20.7 16 27.7
003AD064 2019-03-12 14:37:31 20.6 16 28
003AD064 2019-03-12 14:07:52 20.6 16 28.2
003AD064 2019-03-12 13:38:14 20.7 16 28.5
003AD064 2019-03-12 13:08:36 20.6 16 28.5
003AD064 2019-03-12 12:38:56 20.6 16 28.5
003AD064 2019-03-12 12:09:16 20.6 16 28.7
003AD064 2019-03-12 11:39:36 20.5 16 28.9
003AD064 2019-03-12 11:09:56 20.5 15 29.1
003AD064 2019-03-12 10:40:16 20.5 15 29.3
003AD064 2019-03-12 10:10:36 20.4 15 29.5
003AD064 2019-03-12 09:40:57 20.4 15 29.7
003AD064 2019-03-12 09:11:16 20.3 15 29.7
003AD064 2019-03-12 08:41:35 20.3 15 29.7
003AD064 2019-03-12 08:11:57 20.4 15 29.8
003AD064 2019-03-12 07:42:15 20.4 15 29.8
003AD064 2019-03-12 07:12:35 20.4 16 29.7
003AD064 2019-03-12 06:42:22 20.4 16 29.7
003AD064 2019-03-12 06:12:42 20.4 16 29.7
003AD064 2019-03-12 05:43:02 20.4 16 29.7
003AD064 2019-03-12 05:13:21 20.4 16 29.7
003AD064 2019-03-12 04:43:41 20.4 16 29.7
003AD064 2019-03-12 04:14:00 20.4 16 29.7
003AD064 2019-03-12 03:44:21 20.5 16 29.5
003AD064 2019-03-12 03:14:42 20.5 16 29.3
003AD064 2019-03-12 02:45:04 20.5 16 29.1
003AD064 2019-03-12 02:15:24 20.5 16 28.9
003AD064 2019-03-12 01:45:49 20.5 16 28.7
003AD064 2019-03-12 01:16:07 20.5 16 28.5
003AD064 2019-03-12 00:46:29 20.5 16 28.5
003AD064 2019-03-12 00:16:50 20.5 16 28.3
003AD064 2019-03-11 23:47:09 20.5 16 28
003AD064 2019-03-11 23:17:30 20.5 16 27.8
003AD064 2019-03-11 22:47:52 20.6 16 27.5
003AD064 2019-03-11 22:18:12 20.6 16 27.5
003AD064 2019-03-11 21:48:32 20.6 16 27.2
003AD064 2019-03-11 21:18:52 20.6 16 26.9
003AD064 2019-03-11 20:49:12 20.7 16 26.6
003AD064 2019-03-11 20:19:33 20.7 16 26.3
003AD064 2019-03-11 19:49:54 20.7 16 25.9
003AD064 2019-03-11 19:20:14 20.7 16 25.9
003AD064 2019-03-11 18:50:35 20.7 16 25.5
003AD064 2019-03-11 18:20:55 20.7 16 25
003AD064 2019-03-11 17:51:15 20.8 16 24.5
003AD064 2019-03-11 17:21:36 20.8 16 24
003AD064 2019-03-11 16:51:57 20.7 16 23.2
003AD064 2019-03-11 16:22:18 20.7 16 22.4
003AD064 2019-03-11 15:52:39 20.7 16 21.4
003AD064 2019-03-11 15:23:02 20.6 16 22.5
003AD064 2019-03-11 14:53:20 20.6 16 22.5
003AD064 2019-03-11 14:23:40 20.6 16 22.4
003AD064 2019-03-11 13:54:00 20.5 16 22.4
003AD064 2019-03-11 13:24:20 20.5 16 22.6
003AD064 2019-03-11 12:54:40 20.5 16 22.4
003AD064 2019-03-11 12:25:00 20.5 16 22.2
003AD064 2019-03-11 11:55:22 20.5 16 22.3
003AD064 2019-03-11 11:25:46 20.5 17 22.4
003AD064 2019-03-11 10:56:08 20.4 17 22.6
003AD064 2019-03-11 10:26:30 20.4 17 22.6
003AD064 2019-03-11 09:56:52 20.4 17 21.8
003AD064 2019-03-11 09:27:13 20.4 17 21.8
003AD064 2019-03-11 08:57:34 20.3 17 21.8
003AD064 2019-03-11 08:27:55 20.3 18 21.8
003AD064 2019-03-11 07:58:18 20.4 18 21.7
003AD064 2019-03-11 07:28:40 20.4 18 21.6
003AD064 2019-03-11 06:59:00 20.4 18 21.7
003AD064 2019-03-11 06:29:23 20.4 18 21.7
003AD064 2019-03-11 05:59:10 20.4 18 21.6
003AD064 2019-03-11 05:29:31 20.4 18 21.6
003AD064 2019-03-11 04:59:51 20.4 18 21.7
003AD064 2019-03-11 04:30:11 20.4 18 21.6
003AD064 2019-03-11 04:00:31 20.4 18 21.7
003AD064 2019-03-11 03:30:52 20.4 19 20.4
003AD064 2019-03-11 03:01:13 20.4 19 20.6
003AD064 2019-03-11 02:31:34 20.4 19 20.6
003AD064 2019-03-11 02:01:54 20.5 19 20.6
003AD064 2019-03-11 01:32:14 20.5 19 20.3
003AD064 2019-03-11 01:02:34 20.5 19 20.3
003AD064 2019-03-11 00:32:54 20.5 19 20.2
003AD064 2019-03-11 00:03:14 20.5 19 20.3
003AD064 2019-03-10 23:33:35 20.5 19 20.1
003AD064 2019-03-10 23:03:56 20.5 19 19.8
003AD064 2019-03-10 22:34:18 20.5 19 19.9
003AD064 2019-03-10 22:04:37 20.5 20 19.6
003AD064 2019-03-10 21:34:56 20.5 20 19.4
003AD064 2019-03-10 21:05:15 20.6 20 19
003AD064 2019-03-10 20:35:36 20.6 20 19
003AD064 2019-03-10 20:05:56 20.6 20 18.9
003AD064 2019-03-10 19:36:16 20.6 20 18.9
003AD064 2019-03-10 19:06:37 20.6 20 19
003AD064 2019-03-10 18:36:57 20.7 20 18.8
003AD064 2019-03-10 18:07:17 20.7 20 18.5
003AD064 2019-03-10 17:37:37 20.7 20 18.5
003AD064 2019-03-10 17:07:57 20.7 21 18.3
003AD064 2019-03-10 16:38:18 20.6 21 18.6
003AD064 2019-03-10 16:08:39 20.6 21 18.7
003AD064 2019-03-10 15:39:00 20.6 21 18.4
003AD064 2019-03-10 15:09:22 20.6 22 18.4
003AD064 2019-03-10 14:39:43 20.6 23 18.1
003AD064 2019-03-10 14:10:03 20.6 23 17.9
003AD064 2019-03-10 13:40:24 20.5 23 18.4
003AD064 2019-03-10 13:10:45 20.5 24 18.4
003AD064 2019-03-10 12:41:06 20.5 24 18.4
003AD064 2019-03-10 12:11:27 20.5 24 18.4
003AD064 2019-03-10 11:41:48 20.5 24 18.2
003AD064 2019-03-10 11:12:09 20.5 24 18.1
003AD064 2019-03-10 10:42:31 20.5 24 18.3
003AD064 2019-03-10 10:12:51 20.5 24 18
003AD064 2019-03-10 09:43:12 20.5 24 18.2
003AD064 2019-03-10 09:13:32 20.5 24 18.4
003AD064 2019-03-10 08:43:53 20.5 24 18.4
003AD064 2019-03-10 08:14:13 20.5 24 18.2
003AD064 2019-03-10 07:44:33 20.5 24 18.4
003AD064 2019-03-10 07:14:53 20.5 24 19
003AD064 2019-03-10 06:45:13 20.5 24 18.9
003AD064 2019-03-10 06:15:34 20.5 24 18.9
003AD064 2019-03-10 05:45:55 20.5 24 18.9
003AD064 2019-03-10 05:15:45 20.5 24 20.6
003AD064 2019-03-10 04:46:04 20.5 24 20.3
003AD064 2019-03-10 04:16:24 20.5 24 20.3
003AD064 2019-03-10 03:46:44 20.6 24 20.5
003AD064 2019-03-10 03:17:04 20.5 24 20.5
003AD064 2019-03-10 02:47:25 20.6 24 20.5
003AD064 2019-03-10 02:17:45 20.6 24 20.4
003AD064 2019-03-10 01:48:05 20.6 24 20.2
003AD064 2019-03-10 01:18:27 20.6 24 20.3
003AD064 2019-03-10 00:48:50 20.6 24 20.3
003AD064 2019-03-10 00:19:11 20.6 24 20.3
003AD064 2019-03-09 23:49:31 20.6 23 20.5
003AD064 2019-03-09 23:19:52 20.6 23 20.6
003AD064 2019-03-09 22:50:14 20.6 23 20.6
003AD064 2019-03-09 22:20:34 20.6 23 20.7
003AD064 2019-03-09 21:50:55 20.6 23 20.5
003AD064 2019-03-09 21:21:14 20.7 23 20.5
003AD064 2019-03-09 20:51:35 20.7 23 20.6
003AD064 2019-03-09 20:21:57 20.7 23 20.7
003AD064 2019-03-09 19:52:16 20.7 23 20.7
003AD064 2019-03-09 19:22:38 20.7 23 20.4
003AD064 2019-03-09 18:53:01 20.7 23 20.5
003AD064 2019-03-09 18:23:23 20.7 23 20.6
003AD064 2019-03-09 17:53:44 20.7 23 20.6
003AD064 2019-03-09 17:24:06 20.7 23 20.6
003AD064 2019-03-09 16:54:29 20.8 23 18.9
003AD064 2019-03-09 16:24:51 20.8 23 19
003AD064 2019-03-09 15:55:14 20.7 23 19
003AD064 2019-03-09 15:25:36 20.7 23 18.6
003AD064 2019-03-09 14:55:57 20.7 23 18.8
003AD064 2019-03-09 14:26:19 20.7 24 18.9
003AD064 2019-03-09 13:56:40 20.7 24 18.9
003AD064 2019-03-09 13:27:01 20.7 24 18.9
003AD064 2019-03-09 12:57:23 20.6 24 18.8
003AD064 2019-03-09 12:27:45 20.6 24 18.9
003AD064 2019-03-09 11:58:06 20.6 24 18.9
003AD064 2019-03-09 11:28:26 20.6 24 18.7
003AD064 2019-03-09 10:58:48 20.6 24 18.6
003AD064 2019-03-09 10:29:09 20.6 24 18.5
003AD064 2019-03-09 09:59:31 20.6 24 18.6
003AD064 2019-03-09 09:29:51 20.6 24 18.6
003AD064 2019-03-09 09:00:12 20.6 25 18.9
003AD064 2019-03-09 08:30:33 20.5 25 18.9
003AD064 2019-03-09 08:00:55 20.6 25 18.9
003AD064 2019-03-09 07:31:17 20.6 25 18.8
003AD064 2019-03-09 07:01:38 20.6 25 18.5
003AD064 2019-03-09 06:32:00 20.6 25 18.3
003AD064 2019-03-09 06:02:22 20.6 26 18.4
003AD064 2019-03-09 05:32:45 20.7 26 18.3
003AD064 2019-03-09 05:03:06 20.7 26 18.2
003AD064 2019-03-09 04:32:55 20.7 26 18.2
003AD064 2019-03-09 04:03:16 20.7 26 18.1
003AD064 2019-03-09 03:33:37 20.7 26 20.1
003AD064 2019-03-09 03:04:00 20.7 26 20
003AD064 2019-03-09 02:34:22 20.7 26 19.9
003AD064 2019-03-09 02:04:43 20.7 26 20.1
003AD064 2019-03-09 01:35:05 20.7 26 20.2
003AD064 2019-03-09 01:05:27 20.8 26 20.2
003AD064 2019-03-09 00:35:50 20.8 26 20.1
003AD064 2019-03-09 00:06:11 20.9 26 20.1
003AD064 2019-03-08 23:36:33 20.8 26 20.2
003AD064 2019-03-08 23:06:56 20.9 27 20.1
003AD064 2019-03-08 22:37:17 20.9 27 20.2
003AD064 2019-03-08 22:07:37 20.9 27 20.1
003AD064 2019-03-08 21:37:59 20.9 27 20.2
003AD064 2019-03-08 21:08:21 20.9 27 20
003AD064 2019-03-08 20:38:43 21 27 20.2
003AD064 2019-03-08 20:09:04 21 27 20
003AD064 2019-03-08 19:39:25 21 27 20
003AD064 2019-03-08 19:09:46 21 27 20.2
003AD064 2019-03-08 18:40:08 21 27 20.3
003AD064 2019-03-08 18:10:29 21 27 20.1
003AD064 2019-03-08 17:40:53 21.1 27 20.2
003AD064 2019-03-08 17:11:12 21.1 27 20.4
003AD064 2019-03-08 16:41:34 21.1 27 20.4
003AD064 2019-03-08 16:11:55 21.1 27 20.5
003AD064 2019-03-08 15:42:18 21 27 20.6
003AD064 2019-03-08 15:12:40 21 27 18.8
003AD064 2019-03-08 14:43:02 21 26 19.1
003AD064 2019-03-08 14:13:24 20.9 27 19.1
003AD064 2019-03-08 13:43:45 20.9 26 18.8
003AD064 2019-03-08 13:14:06 20.9 26 18.6
003AD064 2019-03-08 12:44:27 20.9 26 18.5
003AD064 2019-03-08 12:14:49 20.8 26 18.7
003AD064 2019-03-08 11:45:09 20.8 25 18.8
003AD064 2019-03-08 11:15:31 20.8 25 18.6
003AD064 2019-03-08 10:45:53 20.8 25 18.8
003AD064 2019-03-08 10:16:11 20.8 25 18.5
003AD064 2019-03-08 09:46:32 20.7 25 18.6
003AD064 2019-03-08 09:16:53 20.7 24 18.6
003AD064 2019-03-08 08:47:14 20.7 24 18.4
003AD064 2019-03-08 08:17:34 20.7 24 18.2
003AD064 2019-03-08 07:47:56 20.7 23 18.3
003AD064 2019-03-08 07:18:18 20.7 23 18.8
003AD064 2019-03-08 06:48:39 20.7 23 18.6
003AD064 2019-03-08 06:19:00 20.7 23 18.5
003AD064 2019-03-08 05:49:21 20.7 23 18.7
003AD064 2019-03-08 05:19:42 20.7 23 19.1
003AD064 2019-03-08 04:50:04 20.7 23 18.9
003AD064 2019-03-08 04:20:25 20.9 22 18.7
003AD064 2019-03-08 04:19:16 20.7 23 18.7
003AD064 2019-03-08 03:49:37 20.7 23 18.5
003AD064 2019-03-08 03:19:58 20.7 23 18.9
003AD064 2019-03-08 02:50:19 20.7 22 18.5
003AD064 2019-03-08 02:20:41 20.7 22 18.5
003AD064 2019-03-08 01:51:04 20.7 22 18.7
003AD064 2019-03-08 01:21:24 20.8 22 18.6
003AD064 2019-03-08 00:51:47 20.8 22 18.6
003AD064 2019-03-08 00:22:06 20.7 22 18.5
003AD064 2019-03-07 23:52:28 20.8 22 18.5
003AD064 2019-03-07 23:22:50 20.8 22 18.5
003AD064 2019-03-07 22:53:11 20.8 22 18.7
003AD064 2019-03-07 22:23:32 20.8 22 18.7
003AD064 2019-03-07 21:53:53 20.8 22 18.5
003AD064 2019-03-07 21:24:15 20.9 22 18.8
003AD064 2019-03-07 20:54:37 20.9 22 19.2
003AD064 2019-03-07 20:24:58 20.9 22 19.6
003AD064 2019-03-07 19:55:19 20.9 22 20
003AD064 2019-03-07 19:25:40 21 22 19.6
003AD064 2019-03-07 18:56:02 21 22 19.9
003AD064 2019-03-07 18:26:23 21.1 22 20.2
003AD064 2019-03-07 17:56:44 21.2 22 20.4
003AD064 2019-03-07 17:27:05 21.2 22 20.4
003AD064 2019-03-07 16:57:26 21.2 22 20.8
003AD064 2019-03-07 16:27:47 21.2 22 20.9
003AD064 2019-03-07 15:58:07 21.2 22 21
003AD064 2019-03-07 15:28:28 21.1 21 21.3
003AD064 2019-03-07 14:58:50 21.1 21 21.1
003AD064 2019-03-07 14:29:09 21.1 21 21.2
003AD064 2019-03-07 13:59:31 21 20 21.5
003AD064 2019-03-07 13:29:52 21 20 21.6
003AD064 2019-03-07 13:00:14 20.9 20 21.6
003AD064 2019-03-07 12:30:36 20.9 19 21.8
003AD064 2019-03-07 12:00:57 20.9 19 22
003AD064 2019-03-07 11:31:20 20.9 19 22
003AD064 2019-03-07 11:01:42 20.8 18 22
003AD064 2019-03-07 10:32:04 20.8 18 21.9
003AD064 2019-03-07 10:02:25 20.7 17 22
003AD064 2019-03-07 09:32:46 20.7 17 22
003AD064 2019-03-07 09:03:08 20.7 17 22
003AD064 2019-03-07 08:33:29 20.7 16 21.9
003AD064 2019-03-07 08:03:50 20.7 16 21.6
003AD064 2019-03-07 07:34:11 20.7 16 21.3
003AD064 2019-03-07 07:04:31 20.7 15 21.3
003AD064 2019-03-07 06:34:53 20.7 15 21.1
003AD064 2019-03-07 06:05:15 20.7 15 20.8
003AD064 2019-03-07 05:35:36 20.7 15 20.5
003AD064 2019-03-07 05:05:59 20.7 15 20.2
003AD064 2019-03-07 04:36:19 20.7 14 20.2
003AD064 2019-03-07 04:06:40 20.7 14 21.4
003AD064 2019-03-07 03:36:28 20.7 14 21.4
003AD064 2019-03-07 03:06:49 20.7 14 21.4
003AD064 2019-03-07 02:37:11 20.7 13 21.3
003AD064 2019-03-07 02:07:33 20.7 13 21.2
003AD064 2019-03-07 01:37:54 20.7 13 21.3
003AD064 2019-03-07 01:08:15 20.7 13 21.4
003AD064 2019-03-07 00:38:36 20.7 13 21.2
003AD064 2019-03-07 00:08:56 20.7 13 20.9
003AD064 2019-03-06 23:39:18 20.7 12 20.9
003AD064 2019-03-06 23:09:40 20.7 12 20.9
003AD064 2019-03-06 22:40:02 20.7 12 20.8
003AD064 2019-03-06 22:10:24 20.7 12 20.8
003AD064 2019-03-06 21:40:44 20.7 12 20.8
003AD064 2019-03-06 21:11:07 20.7 12 20.5
003AD064 2019-03-06 20:41:26 20.7 12 20.5
003AD064 2019-03-06 20:11:47 20.7 12 20.5
003AD064 2019-03-06 19:42:08 20.8 11 20.5
003AD064 2019-03-06 19:12:28 20.8 11 20.7
003AD064 2019-03-06 18:42:48 20.8 11 20.8
003AD064 2019-03-06 18:13:11 20.9 11 21.2
003AD064 2019-03-06 17:43:31 20.9 11 21.7
003AD064 2019-03-06 17:13:51 20.9 11 21.6
003AD064 2019-03-06 16:44:12 21 11 20.6
003AD064 2019-03-06 16:14:31 21 11 20.9
003AD064 2019-03-06 15:44:50 21 11 21.8
003AD064 2019-03-06 15:15:10 21 11 22
003AD064 2019-03-06 14:45:32 20.9 11 22.3
003AD064 2019-03-06 14:15:54 20.8 11 22.5
003AD064 2019-03-06 13:46:14 20.7 11 23.1
003AD064 2019-03-06 13:16:37 20.7 11 23.3
003AD064 2019-03-06 12:46:58 20.7 11 23.5
003AD064 2019-03-06 12:17:18 20.7 11 23.7
003AD064 2019-03-06 11:47:41 20.6 11 23.9
003AD064 2019-03-06 11:18:00 20.6 11 24
003AD064 2019-03-06 10:48:22 20.6 11 24
003AD064 2019-03-06 10:18:42 20.5 11 24.2
003AD064 2019-03-06 09:49:03 20.4 11 24.4
003AD064 2019-03-06 09:19:24 20.4 11 24.5
003AD064 2019-03-06 08:49:45 20.4 11 24.5
003AD064 2019-03-06 08:20:06 20.4 11 24.7
003AD064 2019-03-06 07:50:26 20.5 12 24.8
003AD064 2019-03-06 07:20:47 20.4 12 24.8
003AD064 2019-03-06 06:51:07 20.5 12 24.9
003AD064 2019-03-06 06:21:28 20.5 12 25.1
003AD064 2019-03-06 05:51:49 20.5 12 25.2
003AD064 2019-03-06 05:22:10 20.5 12 25.5
003AD064 2019-03-06 04:52:31 20.5 12 25.5
003AD064 2019-03-06 04:22:52 20.5 12 25.5
003AD064 2019-03-06 03:53:13 20.5 12 25.4
003AD064 2019-03-06 03:23:36 20.5 12 25
003AD064 2019-03-06 02:53:25 20.6 12 24.8
003AD064 2019-03-06 02:23:45 20.6 12 24.7
003AD064 2019-03-06 01:54:08 20.6 12 24
003AD064 2019-03-06 01:24:30 20.6 13 24.1
003AD064 2019-03-06 00:54:51 20.6 13 23.8
003AD064 2019-03-06 00:25:11 20.7 13 24.3
003AD064 2019-03-05 23:55:32 20.7 13 24.2
003AD064 2019-03-05 23:25:53 20.7 13 24.2
003AD064 2019-03-05 22:56:16 20.7 13 24.1
003AD064 2019-03-05 22:26:37 20.8 13 24
003AD064 2019-03-05 21:56:58 20.8 13 23.8
003AD064 2019-03-05 21:27:20 20.8 13 23.8
003AD064 2019-03-05 20:57:41 20.8 13 23.7
003AD064 2019-03-05 20:28:02 20.9 13 23.6
003AD064 2019-03-05 19:58:24 20.9 13 23.6
003AD064 2019-03-05 19:28:45 20.8 13 23.6
003AD064 2019-03-05 18:59:06 20.9 13 23.4
003AD064 2019-03-05 18:29:27 20.9 13 23.1
003AD064 2019-03-05 17:59:47 21 13 22.9
003AD064 2019-03-05 17:30:09 21 14 22.3
003AD064 2019-03-05 17:00:32 21 14 22.3
003AD064 2019-03-05 16:30:54 21.1 15 22.3
003AD064 2019-03-05 16:01:15 21 15 22.5
003AD064 2019-03-05 15:31:36 20.9 15 22.6
003AD064 2019-03-05 15:01:58 20.8 16 22.7
003AD064 2019-03-05 14:32:20 20.7 16 22.9
003AD064 2019-03-05 14:02:42 20.6 16 22.8
003AD064 2019-03-05 13:33:03 20.6 16 23
003AD064 2019-03-05 13:03:25 20.6 17 23
003AD064 2019-03-05 12:33:46 20.6 17 23.1
003AD064 2019-03-05 12:04:09 20.6 17 22.4
003AD064 2019-03-05 11:34:31 20.5 17 22.3
003AD064 2019-03-05 11:04:52 20.5 17 22.3
003AD064 2019-03-05 10:35:13 20.5 17 22.4
003AD064 2019-03-05 10:05:34 20.5 18 22.3
003AD064 2019-03-05 09:35:55 20.5 18 22.3
003AD064 2019-03-05 09:06:15 20.5 18 22.5
003AD064 2019-03-05 08:36:35 20.5 18 22.6
003AD064 2019-03-05 08:06:55 20.5 18 22.4
003AD064 2019-03-05 07:37:17 20.5 19 22.3
003AD064 2019-03-05 07:07:39 20.5 19 22.3
003AD064 2019-03-05 06:38:01 20.5 19 22.4
003AD064 2019-03-05 06:08:23 20.5 19 22.4
003AD064 2019-03-05 05:38:43 20.5 19 22.3
003AD064 2019-03-05 05:09:05 20.5 19 21.9
003AD064 2019-03-05 04:39:26 20.5 19 22.2
003AD064 2019-03-05 04:09:47 20.5 19 22.3
003AD064 2019-03-05 03:40:09 20.5 19 22.1
003AD064 2019-03-05 03:10:31 20.5 19 22.8
003AD064 2019-03-05 02:40:51 20.5 19 22.6
003AD064 2019-03-05 02:10:38 20.5 19 22.5
003AD064 2019-03-05 01:40:59 20.5 19 22.3
003AD064 2019-03-05 01:11:21 20.5 19 22.1
003AD064 2019-03-05 00:41:41 20.5 18 21.8
003AD064 2019-03-05 00:12:01 20.5 18 21.6
003AD064 2019-03-04 23:42:22 20.5 18 21.6
003AD064 2019-03-04 23:12:42 20.5 18 21.7
003AD064 2019-03-04 22:43:03 20.5 18 21.5
003AD064 2019-03-04 22:13:22 20.5 18 21.5
003AD064 2019-03-04 21:43:44 20.5 18 21.5
003AD064 2019-03-04 21:14:02 20.5 18 21.1
003AD064 2019-03-04 20:44:22 20.5 18 20.9
003AD064 2019-03-04 20:14:42 20.5 18 21.2
003AD064 2019-03-04 19:45:02 20.5 18 21.2
003AD064 2019-03-04 19:15:22 20.5 18 21.2
003AD064 2019-03-04 18:45:42 20.5 18 21
003AD064 2019-03-04 18:16:01 20.5 18 21
003AD064 2019-03-04 17:46:20 20.5 18 20.9
003AD064 2019-03-04 17:16:40 20.5 18 20.9
003AD064 2019-03-04 16:47:00 20.5 17 20.7
003AD064 2019-03-04 16:17:19 20.5 17 20.4
003AD064 2019-03-04 15:47:39 20.5 17 20.9
003AD064 2019-03-04 15:17:57 20.5 17 19.6
003AD064 2019-03-04 14:48:17 20.5 17 19.9
003AD064 2019-03-04 14:18:36 20.4 17 20.2
003AD064 2019-03-04 13:48:56 20.4 17 20.2
003AD064 2019-03-04 13:19:17 20.4 17 20.5
003AD064 2019-03-04 12:49:37 20.4 17 20.6
003AD064 2019-03-04 12:19:57 20.3 17 20.7
003AD064 2019-03-04 11:50:16 20.3 17 20.8
003AD064 2019-03-04 11:20:36 20.2 17 20.9
003AD064 2019-03-04 10:50:55 20.2 17 20.8
003AD064 2019-03-04 10:21:14 20.1 17 20.8
003AD064 2019-03-04 09:51:33 20.1 17 21.2
003AD064 2019-03-04 09:21:53 20.1 17 21.5
003AD064 2019-03-04 08:52:14 20 17 21.5
003AD064 2019-03-04 08:22:34 20 17 21.7
003AD064 2019-03-04 07:52:56 20 17 21.6
003AD064 2019-03-04 07:23:19 20 18 21.6
003AD064 2019-03-04 06:53:39 20 18 21.6
003AD064 2019-03-04 06:24:01 20 18 21.6
003AD064 2019-03-04 05:54:21 20.1 17 21.8
003AD064 2019-03-04 05:24:42 20 17 21.8
003AD064 2019-03-04 04:55:03 20.1 17 21.9
003AD064 2019-03-04 04:25:24 20.1 17 21.8
003AD064 2019-03-04 03:55:46 20.1 17 21.7
003AD064 2019-03-04 03:26:03 20.1 17 21.2
003AD064 2019-03-04 02:56:23 20.1 17 21.1
003AD064 2019-03-04 02:26:42 20.1 17 20.9
003AD064 2019-03-04 01:57:03 20.1 17 20.8
003AD064 2019-03-04 01:26:50 20.1 17 20.5
003AD064 2019-03-04 00:57:10 20.1 17 20.4
003AD064 2019-03-04 00:27:31 20.1 17 20.3
003AD064 2019-03-03 23:57:51 20.1 17 20.2
003AD064 2019-03-03 23:28:13 20.1 17 20.3
003AD064 2019-03-03 22:58:32 20.1 17 20.3
003AD064 2019-03-03 22:28:52 20.1 17 20.3
003AD064 2019-03-03 21:59:13 20.1 17 19.9
003AD064 2019-03-03 21:29:33 20.1 17 19.5
003AD064 2019-03-03 20:59:52 20.1 17 19.7
003AD064 2019-03-03 20:30:11 20.1 17 19.8
003AD064 2019-03-03 20:00:29 20.1 18 19.5
003AD064 2019-03-03 19:30:49 20.1 18 19.6
003AD064 2019-03-03 19:01:08 20.2 18 19.6
003AD064 2019-03-03 18:31:26 20.2 18 19.6
003AD064 2019-03-03 18:01:48 20.2 18 19.1
003AD064 2019-03-03 17:32:02 20.2 18 18.9
003AD064 2019-03-03 17:02:20 20.2 18 18.9
003AD064 2019-03-03 16:32:38 20.2 18 18.8
003AD064 2019-03-03 16:02:57 20.2 18 18.8
003AD064 2019-03-03 15:33:15 20.2 18 18.7
003AD064 2019-03-03 15:03:34 20.2 18 18.6
003AD064 2019-03-03 14:33:55 20.2 18 18.5
003AD064 2019-03-03 14:04:17 20.2 18 18.2
003AD064 2019-03-03 13:34:38 20.2 18 18.2
003AD064 2019-03-03 13:04:59 20.2 18 18.7
003AD064 2019-03-03 12:35:21 20.2 18 18.7
003AD064 2019-03-03 12:05:44 20.2 18 18.7
003AD064 2019-03-03 11:36:06 20.2 18 18.8
003AD064 2019-03-03 11:06:28 20.2 18 18.7
003AD064 2019-03-03 10:36:50 20.2 18 18.9
003AD064 2019-03-03 10:07:12 20.2 18 18.8
003AD064 2019-03-03 09:37:33 20.2 18 18.8
003AD064 2019-03-03 09:07:53 20.2 18 18.9
003AD064 2019-03-03 08:38:14 20.2 18 18.7
003AD064 2019-03-03 08:08:35 20.2 18 18.4
003AD064 2019-03-03 07:38:56 20.2 18 18.3
003AD064 2019-03-03 07:09:18 20.2 18 18.1
003AD064 2019-03-03 06:39:40 20.2 18 18
003AD064 2019-03-03 06:10:01 20.3 18 17.8
003AD064 2019-03-03 05:40:22 20.3 18 17.7
003AD064 2019-03-03 05:10:44 20.3 18 17.7
003AD064 2019-03-03 04:41:05 20.3 18 18.3
003AD064 2019-03-03 04:11:28 20.3 18 18
003AD064 2019-03-03 03:41:49 20.3 18 18
003AD064 2019-03-03 03:12:11 20.3 18 18.3
003AD064 2019-03-03 02:42:31 20.3 18 18.4
003AD064 2019-03-03 02:12:52 20.3 18 18.7
003AD064 2019-03-03 01:43:13 20.3 18 19.1
003AD064 2019-03-03 01:13:34 20.5 18 19
003AD064 2019-03-03 01:12:25 20.3 18 18.4
003AD064 2019-03-03 00:42:47 20.3 18 18.7
003AD064 2019-03-03 00:13:07 20.3 18 18.7
003AD064 2019-03-02 23:43:30 20.4 18 18.5
003AD064 2019-03-02 23:13:48 20.4 18 18.8
003AD064 2019-03-02 22:44:09 20.4 18 20.5
003AD064 2019-03-02 22:14:30 20.4 18 20.6
003AD064 2019-03-02 21:44:50 20.4 18 20.6
003AD064 2019-03-02 21:15:11 20.4 17 21.8
003AD064 2019-03-02 20:45:31 20.4 17 22.8
003AD064 2019-03-02 20:15:51 20.4 17 22.8
003AD064 2019-03-02 19:46:11 20.4 17 22.8
003AD064 2019-03-02 19:16:32 20.5 17 22.9
003AD064 2019-03-02 18:46:53 20.5 17 23.1
003AD064 2019-03-02 18:17:14 20.5 17 23.2
003AD064 2019-03-02 17:47:35 20.5 17 23.3
003AD064 2019-03-02 17:17:57 20.5 17 23.3
003AD064 2019-03-02 16:48:18 20.6 17 23.1
003AD064 2019-03-02 16:18:40 20.6 17 23.1
003AD064 2019-03-02 15:49:05 20.5 17 23.3
003AD064 2019-03-02 15:19:25 20.5 17 23.2
003AD064 2019-03-02 14:49:47 20.4 16 23.5
003AD064 2019-03-02 14:20:10 20.4 16 23.5
003AD064 2019-03-02 13:50:32 20.4 16 23.4
003AD064 2019-03-02 13:20:55 20.4 16 23.5
003AD064 2019-03-02 12:51:17 20.4 16 23.5
003AD064 2019-03-02 12:21:38 20.4 16 23.5
003AD064 2019-03-02 11:51:59 20.4 16 23.6
003AD064 2019-03-02 11:22:20 20.4 16 23.6
003AD064 2019-03-02 10:52:41 20.4 16 24.2
003AD064 2019-03-02 10:23:02 20.4 16 23.7
003AD064 2019-03-02 09:53:24 20.4 15 23.7
003AD064 2019-03-02 09:23:44 20.4 15 24.4
003AD064 2019-03-02 08:54:04 20.4 15 23.9
003AD064 2019-03-02 08:24:25 20.4 15 23.2
003AD064 2019-03-02 07:54:45 20.4 15 23.3
003AD064 2019-03-02 07:25:07 20.4 15 23.3
003AD064 2019-03-02 06:55:28 20.4 15 23.2
003AD064 2019-03-02 06:25:49 20.4 15 23.3
003AD064 2019-03-02 05:56:11 20.4 15 23.4
003AD064 2019-03-02 05:26:32 20.4 15 23.3
003AD064 2019-03-02 04:56:54 20.5 14 23.5
003AD064 2019-03-02 04:27:17 20.5 14 23.5
003AD064 2019-03-02 03:57:38 20.5 14 23.6
003AD064 2019-03-02 03:28:00 20.5 14 23.6
003AD064 2019-03-02 02:58:21 20.6 14 23.6
003AD064 2019-03-02 02:28:43 20.6 14 23.2
003AD064 2019-03-02 01:59:05 20.6 14 23.9
003AD064 2019-03-02 01:29:26 20.7 14 23.8
003AD064 2019-03-02 00:59:48 20.7 14 23.8
003AD064 2019-03-02 00:29:36 20.7 13 23.6
003AD064 2019-03-01 23:59:57 20.7 13 23.7
003AD064 2019-03-01 23:30:21 20.8 13 23.7
003AD064 2019-03-01 23:00:43 20.9 13 23
003AD064 2019-03-01 22:31:06 20.9 13 22.8
003AD064 2019-03-01 22:01:27 20.9 13 22.9
003AD064 2019-03-01 21:31:48 21 13 21.9
003AD064 2019-03-01 21:02:11 21 13 21.8
003AD064 2019-03-01 20:32:32 21 13 21.7
003AD064 2019-03-01 20:02:54 21 12 21.4
003AD064 2019-03-01 19:33:15 21 12 21.5
003AD064 2019-03-01 19:03:37 21 12 21.6
003AD064 2019-03-01 18:33:58 21.1 12 21.4
003AD064 2019-03-01 18:04:20 21.1 12 21
003AD064 2019-03-01 17:34:40 21.2 13 21
003AD064 2019-03-01 17:05:01 21.3 13 20.7
003AD064 2019-03-01 16:35:22 21.3 14 21
003AD064 2019-03-01 16:05:43 21.3 14 20.8
003AD064 2019-03-01 15:36:04 21.2 14 20.6
003AD064 2019-03-01 15:06:26 21 15 20.6
003AD064 2019-03-01 14:36:48 21 15 20.7
003AD064 2019-03-01 14:07:11 20.9 15 19
003AD064 2019-03-01 13:37:33 20.9 15 19
003AD064 2019-03-01 13:07:57 20.9 15 18.9
003AD064 2019-03-01 12:38:22 20.9 15 20.7
003AD064 2019-03-01 12:08:44 20.9 16 20.7
003AD064 2019-03-01 11:39:04 20.9 16 20.5
003AD064 2019-03-01 11:09:27 20.9 16 20.4
003AD064 2019-03-01 10:39:49 20.8 16 20.6
003AD064 2019-03-01 10:10:12 20.7 16 20.5
003AD064 2019-03-01 09:40:33 20.6 16 20.3
003AD064 2019-03-01 09:10:55 20.5 16 20.2
003AD064 2019-03-01 08:41:18 20.5 17 20.1
003AD064 2019-03-01 08:11:41 20.5 17 20.1
003AD064 2019-03-01 07:42:04 20.5 17 20
003AD064 2019-03-01 07:12:26 20.5 18 20
003AD064 2019-03-01 06:42:49 20.6 18 19.7
003AD064 2019-03-01 06:13:11 20.6 18 21.2
003AD064 2019-03-01 05:43:33 20.6 18 21.2
003AD064 2019-03-01 05:13:56 20.6 18 21.3
003AD064 2019-03-01 04:44:17 20.6 19 21.2
003AD064 2019-03-01 04:14:39 20.6 19 21
003AD064 2019-03-01 03:45:00 20.6 19 21.1
003AD064 2019-03-01 03:15:23 20.6 19 21
003AD064 2019-03-01 02:45:45 20.6 20 21.2
003AD064 2019-03-01 02:16:07 20.7 20 21.3
003AD064 2019-03-01 01:46:28 20.7 20 21.3
003AD064 2019-03-01 01:16:51 20.7 20 21.3
003AD064 2019-03-01 00:47:16 20.7 21 21.3
003AD064 2019-03-01 00:17:36 20.7 21 20.1
003AD064 2019-02-28 23:47:24 20.7 21 20.4
003AD064 2019-02-28 23:17:46 20.8 22 20.6
003AD064 2019-02-28 22:48:09 20.8 22 20.4
003AD064 2019-02-28 22:18:31 20.8 22 20.2
003AD064 2019-02-28 21:48:54 20.9 22 20.5
003AD064 2019-02-28 21:19:15 20.9 23 20.6
003AD064 2019-02-28 20:49:42 20.9 23 20.7
003AD064 2019-02-28 20:20:00 20.9 23 20.7
003AD064 2019-02-28 19:50:24 21 23 21.2
003AD064 2019-02-28 19:20:45 21 23 21.5
003AD064 2019-02-28 18:51:06 21 23 21.7
003AD064 2019-02-28 18:21:28 21.2 24 20.6
003AD064 2019-02-28 17:51:50 21.3 25 21.4
003AD064 2019-02-28 17:22:13 21.3 25 22.4
003AD064 2019-02-28 16:52:31 21.4 26 22.4
003AD064 2019-02-28 16:22:53 21.4 26 22.5
003AD064 2019-02-28 15:53:14 21.3 26 22.7
003AD064 2019-02-28 15:23:34 21.3 25 22.7
003AD064 2019-02-28 14:53:57 21.2 25 22.9
003AD064 2019-02-28 14:24:17 21.3 25 23
003AD064 2019-02-28 13:54:38 21.3 25 23
003AD064 2019-02-28 13:24:58 21.2 25 23.1
003AD064 2019-02-28 12:55:20 21.2 25 23.1
003AD064 2019-02-28 12:25:42 21.2 25 23.1
003AD064 2019-02-28 11:56:03 21.1 24 23
003AD064 2019-02-28 11:26:25 21.1 24 23
003AD064 2019-02-28 10:56:47 21 24 22.9
003AD064 2019-02-28 10:27:08 20.9 23 23.1
003AD064 2019-02-28 09:57:30 20.8 23 23.4
003AD064 2019-02-28 09:27:52 20.8 22 23.3
003AD064 2019-02-28 08:58:14 20.7 22 23.4
003AD064 2019-02-28 08:28:35 20.7 22 23.7
003AD064 2019-02-28 07:58:58 20.7 22 23.7
003AD064 2019-02-28 07:29:18 20.7 22 23.5
003AD064 2019-02-28 06:59:39 20.7 22 23.5
003AD064 2019-02-28 06:30:00 20.8 22 23.4
003AD064 2019-02-28 06:00:21 20.8 22 24
003AD064 2019-02-28 05:30:42 20.7 22 23.7
003AD064 2019-02-28 05:01:04 20.7 22 23
003AD064 2019-02-28 04:31:26 20.8 22 23
003AD064 2019-02-28 04:01:47 20.8 22 23
003AD064 2019-02-28 03:32:08 20.8 22 22.8
003AD064 2019-02-28 03:02:29 20.8 22 22.8
003AD064 2019-02-28 02:32:51 20.8 22 22.6
003AD064 2019-02-28 02:03:13 20.8 22 22.4
003AD064 2019-02-28 01:33:35 20.8 22 22.3
003AD064 2019-02-28 01:03:57 20.8 22 22.2
003AD064 2019-02-28 00:34:18 20.9 22 22.5
003AD064 2019-02-28 00:04:40 20.9 22 22.4
003AD064 2019-02-27 23:35:01 20.9 22 22.5
003AD064 2019-02-27 23:04:54 21 22 22.6
003AD064 2019-02-27 22:35:15 21 22 22.6
003AD064 2019-02-27 22:05:36 21 22 22.5
003AD064 2019-02-27 21:35:58 21.1 23 22.5
003AD064 2019-02-27 21:06:19 21.1 23 22.5
003AD064 2019-02-27 20:36:41 21.1 23 22.4
003AD064 2019-02-27 20:07:03 21.2 23 22.5
003AD064 2019-02-27 19:37:25 21.2 23 22.9
003AD064 2019-02-27 19:07:46 21.3 23 22.6
003AD064 2019-02-27 18:38:08 21.4 23 22.7
003AD064 2019-02-27 18:08:29 21.5 24 22.4
003AD064 2019-02-27 17:38:50 21.6 25 22.2
003AD064 2019-02-27 17:09:11 21.7 25 22.5
003AD064 2019-02-27 16:39:31 21.7 26 22.6
003AD064 2019-02-27 16:09:52 21.6 26 22.6
003AD064 2019-02-27 15:40:12 21.6 26 23.3
003AD064 2019-02-27 15:10:33 21.5 26 23.5
003AD064 2019-02-27 14:40:53 21.4 26 23.7
003AD064 2019-02-27 14:11:15 21.3 26 23.7
003AD064 2019-02-27 13:41:36 21.2 25 24
003AD064 2019-02-27 13:11:58 21.2 25 24.1
003AD064 2019-02-27 12:42:20 21.2 25 24.2
003AD064 2019-02-27 12:12:38 21.2 25 24.3
003AD064 2019-02-27 11:42:59 21.1 25 24.5
003AD064 2019-02-27 11:13:19 21.1 25 24.8
003AD064 2019-02-27 10:43:39 21 25 24.8
003AD064 2019-02-27 10:14:01 21 25 24.6
003AD064 2019-02-27 09:44:23 20.9 24 24.6
003AD064 2019-02-27 09:14:46 20.9 24 24.6
003AD064 2019-02-27 08:45:07 20.9 24 24.5
003AD064 2019-02-27 08:15:30 20.9 23 24.5
003AD064 2019-02-27 07:45:52 20.9 23 24.6
003AD064 2019-02-27 07:16:15 20.9 23 24.6
003AD064 2019-02-27 06:46:37 20.9 23 24.8
003AD064 2019-02-27 06:17:00 20.9 23 25.2
003AD064 2019-02-27 05:47:23 20.9 23 25
003AD064 2019-02-27 05:17:45 20.9 23 25.2
003AD064 2019-02-27 04:48:07 20.9 23 25.2
003AD064 2019-02-27 04:18:30 21 23 25.1
003AD064 2019-02-27 03:48:53 21 23 25.2
003AD064 2019-02-27 03:19:16 21 23 24.8
003AD064 2019-02-27 02:49:38 21 23 24.9
003AD064 2019-02-27 02:20:01 21 23 24.9
003AD064 2019-02-27 01:50:23 21.1 23 25
003AD064 2019-02-27 01:20:46 21.1 23 25
003AD064 2019-02-27 00:51:09 21.1 23 24.8
003AD064 2019-02-27 00:21:31 21.2 23 24.7
003AD064 2019-02-26 23:51:52 21.2 23 24.6
003AD064 2019-02-26 23:22:12 21.3 23 24.9
003AD064 2019-02-26 22:52:30 21.3 24 24.7
003AD064 2019-02-26 22:22:18 21.4 24 25.1
003AD064 2019-02-26 21:52:38 21.4 24 25.1
003AD064 2019-02-26 21:22:59 21.5 24 25
003AD064 2019-02-26 20:53:20 21.5 24 25.4
003AD064 2019-02-26 20:23:43 21.6 24 25.7
003AD064 2019-02-26 19:54:04 21.6 24 26
003AD064 2019-02-26 19:24:26 21.6 24 25.9
003AD064 2019-02-26 18:54:49 21.7 24 25.9
003AD064 2019-02-26 18:25:11 21.8 24 26.2
003AD064 2019-02-26 17:55:34 21.9 24 26.4
003AD064 2019-02-26 17:25:56 21.9 24 26.7
003AD064 2019-02-26 16:56:18 21.9 25 27
003AD064 2019-02-26 16:26:39 21.8 25 27.3
003AD064 2019-02-26 15:57:00 21.7 25 27.5
003AD064 2019-02-26 15:27:23 21.6 25 27.7
003AD064 2019-02-26 14:57:44 21.6 25 27.9
003AD064 2019-02-26 14:28:09 21.5 24 28.1
003AD064 2019-02-26 13:58:28 21.5 25 28
003AD064 2019-02-26 13:28:50 21.5 25 28.2
003AD064 2019-02-26 12:59:11 21.4 25 28.5
003AD064 2019-02-26 12:29:33 21.4 25 28.5
003AD064 2019-02-26 11:59:54 21.3 25 28.5
003AD064 2019-02-26 11:30:16 21.2 24 28.7
003AD064 2019-02-26 11:00:37 21.2 24 28.7
003AD064 2019-02-26 10:30:58 21.1 24 28.9
003AD064 2019-02-26 10:01:20 21 24 28.9
003AD064 2019-02-26 09:31:42 20.9 23 29.1
003AD064 2019-02-26 09:02:03 20.9 23 29.3
003AD064 2019-02-26 08:32:25 20.8 23 29.3
003AD064 2019-02-26 08:02:47 20.9 23 29.3
003AD064 2019-02-26 07:33:06 20.9 23 29.3
003AD064 2019-02-26 07:03:27 20.9 23 29.5
003AD064 2019-02-26 06:33:48 20.9 23 29.5
003AD064 2019-02-26 06:04:08 20.9 22 29.5
003AD064 2019-02-26 05:34:30 20.9 22 29.5
003AD064 2019-02-26 05:04:52 20.9 22 29.5
003AD064 2019-02-26 04:35:13 20.9 22 29.5
003AD064 2019-02-26 04:05:36 20.9 22 29.5
003AD064 2019-02-26 03:35:58 20.9 22 29.3
003AD064 2019-02-26 03:06:21 20.9 22 29.1
003AD064 2019-02-26 02:36:44 21 22 28.9
003AD064 2019-02-26 02:07:06 21 22 28.9
003AD064 2019-02-26 01:37:27 21 22 28.9
003AD064 2019-02-26 01:07:49 21 21 28.7
003AD064 2019-02-26 00:38:09 21 21 28.4
003AD064 2019-02-26 00:08:30 21.1 21 28.4
003AD064 2019-02-25 23:38:51 21.1 21 28.2
003AD064 2019-02-25 23:09:11 21.2 21 28
003AD064 2019-02-25 22:39:32 21.2 21 27.7
003AD064 2019-02-25 22:09:53 21.2 21 27.4
003AD064 2019-02-25 21:39:43 21.3 21 27
003AD064 2019-02-25 21:10:04 21.3 21 26.7
003AD064 2019-02-25 20:40:26 21.4 21 26.3
003AD064 2019-02-25 20:10:47 21.4 21 25.9
003AD064 2019-02-25 19:41:08 21.5 21 25.4
003AD064 2019-02-25 19:11:27 21.5 21 24.9
003AD064 2019-02-25 18:41:49 21.6 21 24.4
003AD064 2019-02-25 18:12:11 21.6 21 23.8
003AD064 2019-02-25 17:42:32 21.6 22 23
003AD064 2019-02-25 17:12:53 21.6 22 22.1
003AD064 2019-02-25 16:43:14 21.6 22 20.9
003AD064 2019-02-25 16:13:34 21.6 22 19.3
003AD064 2019-02-25 15:43:55 21.6 22 19.2
003AD064 2019-02-25 15:14:17 21.6 23 19.3
003AD064 2019-02-25 14:44:35 21.4 23 19.3
003AD064 2019-02-25 14:14:54 21.3 22 16.8
003AD064 2019-02-25 13:45:15 21.3 22 16.8
003AD064 2019-02-25 13:15:35 21.2 22 16.9
003AD064 2019-02-25 12:45:58 21.1 22 17.1
003AD064 2019-02-25 12:16:16 21.1 22 17
003AD064 2019-02-25 11:46:39 21 23 16.3
003AD064 2019-02-25 10:47:18 20.8 23 16.3
003AD064 2019-02-25 10:17:38 20.8 22 16.3
003AD064 2019-02-25 09:48:01 20.7 22 16.2
003AD064 2019-02-25 09:18:19 20.7 22 16.5
003AD064 2019-02-25 08:48:39 20.6 22 16.6
003AD064 2019-02-25 08:19:02 20.6 22 16.5
003AD064 2019-02-25 07:49:22 20.6 22 16.8
003AD064 2019-02-25 07:19:40 20.6 22 17
003AD064 2019-02-25 06:50:01 20.6 22 17.2
003AD064 2019-02-25 06:20:24 20.6 22 17.1
003AD064 2019-02-25 05:50:43 20.6 22 16.9
003AD064 2019-02-25 04:51:22 20.6 22 16.8
003AD064 2019-02-25 04:21:44 20.6 22 16.9
003AD064 2019-02-25 03:52:06 20.6 22 16.7
003AD064 2019-02-25 03:22:28 20.6 22 16.7
003AD064 2019-02-25 02:52:50 20.6 23 16.3
003AD064 2019-02-25 02:23:12 20.7 23 16.9
003AD064 2019-02-25 01:53:35 20.6 23 16.5
003AD064 2019-02-25 01:23:56 20.7 23 16.7
003AD064 2019-02-25 00:54:18 20.6 23 16.6
003AD064 2019-02-25 00:24:42 20.6 23 16.5
003AD064 2019-02-24 23:55:03 20.7 23 16.6
003AD064 2019-02-24 23:25:25 20.7 24 16.4
003AD064 2019-02-24 22:55:47 20.7 24 16.5
003AD064 2019-02-24 22:26:08 20.7 24 16.5
003AD064 2019-02-24 21:56:29 20.7 24 16.7
003AD064 2019-02-24 21:26:53 20.7 24 16.7
003AD064 2019-02-24 20:56:38 20.7 24 16.3
003AD064 2019-02-24 20:26:59 20.8 24 16.3
003AD064 2019-02-24 19:57:20 20.8 24 16.3
003AD064 2019-02-24 19:27:42 20.8 24 15.9
003AD064 2019-02-24 18:58:03 20.8 24 15.7
003AD064 2019-02-24 18:28:25 20.8 23 15.7
003AD064 2019-02-24 17:58:47 20.8 23 16.2
003AD064 2019-02-24 17:29:08 20.8 23 15.9
003AD064 2019-02-24 16:59:28 20.8 23 15.9
003AD064 2019-02-24 16:29:49 20.7 23 15.9
003AD064 2019-02-24 16:00:12 20.7 23 16.2
003AD064 2019-02-24 15:30:34 20.8 23 16.3
003AD064 2019-02-24 15:00:56 20.8 23 15.5
003AD064 2019-02-24 14:31:20 20.7 23 18.7
003AD064 2019-02-24 14:01:40 20.8 23 18.8
003AD064 2019-02-24 13:32:04 20.7 22 18.9
003AD064 2019-02-24 13:02:24 20.8 22 19.2
003AD064 2019-02-24 12:32:43 20.8 22 19.3
003AD064 2019-02-24 12:03:04 20.8 22 19.3
003AD064 2019-02-24 11:33:28 20.7 22 19.4
003AD064 2019-02-24 11:03:48 20.7 22 19.6
003AD064 2019-02-24 10:34:09 20.7 22 19.6
003AD064 2019-02-24 10:04:34 20.7 22 19.6
003AD064 2019-02-24 09:34:55 20.7 22 19.6
003AD064 2019-02-24 09:05:15 20.7 22 19.8
003AD064 2019-02-24 08:35:37 20.8 22 19.7
003AD064 2019-02-24 07:36:23 20.8 22 19.7
003AD064 2019-02-24 07:06:46 20.8 22 19.8
003AD064 2019-02-24 06:37:08 20.8 22 19.9
003AD064 2019-02-24 06:07:34 20.8 22 19.8
003AD064 2019-02-24 05:37:54 20.8 22 20
003AD064 2019-02-24 05:08:16 20.8 21 19.8
003AD064 2019-02-24 04:38:38 20.9 21 19.9
003AD064 2019-02-24 04:09:00 20.8 21 19.9
003AD064 2019-02-24 03:39:21 20.9 21 20
003AD064 2019-02-24 03:09:41 20.9 21 19.9
003AD064 2019-02-24 02:40:01 20.9 21 19.9
003AD064 2019-02-24 01:40:45 20.9 21 19.9
003AD064 2019-02-24 01:11:02 20.9 21 17.9
003AD064 2019-02-24 00:41:22 20.9 21 17.8
003AD064 2019-02-24 00:11:46 21 21 17.7
003AD064 2019-02-23 23:42:09 20.9 21 17.2
003AD064 2019-02-23 23:12:34 21 20 17
003AD064 2019-02-23 22:42:54 21 20 17
003AD064 2019-02-23 22:13:18 21 20 16.7
003AD064 2019-02-23 21:43:40 21.1 20 16.5
003AD064 2019-02-23 21:14:02 21.1 20 16.3
003AD064 2019-02-23 20:44:24 21.3 19 16.2
003AD064 2019-02-23 20:43:14 21.1 20 16.3
003AD064 2019-02-23 20:13:38 21.2 19 16.2
003AD064 2019-02-23 19:44:03 21.2 19 16.2
003AD064 2019-02-23 19:14:24 21.2 19 16.3
003AD064 2019-02-23 18:44:46 21.3 19 16.4
003AD064 2019-02-23 18:15:07 21.2 18 16.1
003AD064 2019-02-23 17:45:28 21.3 18 15.9
003AD064 2019-02-23 17:15:50 21.3 18 15.6
003AD064 2019-02-23 16:46:11 21.2 17 15.6
003AD064 2019-02-23 16:16:33 21.2 17 15.6
003AD064 2019-02-23 15:46:58 21.1 17 16
003AD064 2019-02-23 15:17:16 21 17 15.9
003AD064 2019-02-23 14:47:37 20.9 17 16.1
003AD064 2019-02-23 14:17:59 20.9 16 16.1
003AD064 2019-02-23 13:48:20 20.9 16 16.3
003AD064 2019-02-23 13:18:42 20.9 16 16
003AD064 2019-02-23 12:49:03 20.8 16 15.8
003AD064 2019-02-23 12:19:24 20.9 16 15.9
003AD064 2019-02-23 11:49:48 20.8 16 15.9
003AD064 2019-02-23 11:20:09 20.8 15 15.9
003AD064 2019-02-23 10:50:30 20.8 15 15.8
003AD064 2019-02-23 10:20:53 20.8 15 15.8
003AD064 2019-02-23 09:51:15 20.8 15 15.8
003AD064 2019-02-23 09:21:38 20.8 15 15.7
003AD064 2019-02-23 08:52:00 20.8 14 15.8
003AD064 2019-02-23 08:22:23 20.8 14 15.7
003AD064 2019-02-23 07:52:45 20.8 14 15.5
003AD064 2019-02-23 07:23:07 20.8 14 15.4
003AD064 2019-02-23 06:53:30 20.8 13 15.2
003AD064 2019-02-23 06:23:52 20.8 13 15.1
003AD064 2019-02-23 05:54:13 20.8 13 14.7
003AD064 2019-02-23 05:24:35 20.8 13 14.8
003AD064 2019-02-23 04:54:58 20.8 13 14.7
003AD064 2019-02-23 04:25:21 20.8 12 14.7
003AD064 2019-02-23 03:55:45 20.8 12 14.1
003AD064 2019-02-23 03:26:09 20.8 12 13.6
003AD064 2019-02-23 02:56:33 20.8 12 13.4
003AD064 2019-02-23 02:26:57 20.8 12 12.6
003AD064 2019-02-23 01:57:21 20.8 12 12.4
003AD064 2019-02-23 01:27:42 20.9 11 11.9
003AD064 2019-02-23 00:58:04 20.9 11 12
003AD064 2019-02-23 00:28:25 20.9 11 11.4
003AD064 2019-02-22 23:58:51 20.9 11 11.4
003AD064 2019-02-22 23:29:09 20.9 11 11.2
003AD064 2019-02-22 22:59:32 21 11 11.2
003AD064 2019-02-22 22:29:56 21 11 11.3
003AD064 2019-02-22 22:00:18 21 11 11.7
003AD064 2019-02-22 21:30:40 21 11 11.9
003AD064 2019-02-22 21:01:01 21.1 10 12.1
003AD064 2019-02-22 20:31:24 21.1 10 12.7
003AD064 2019-02-22 20:01:14 21.1 10 13
003AD064 2019-02-22 19:51:15 21.1 10 13
003AD064 2019-02-22 19:41:17 21.1 10 13.1
003AD064 2019-02-22 19:31:19 21.2 10 13.3
003AD064 2019-02-22 19:21:20 21.2 10 13.4
003AD064 2019-02-22 19:11:21 21.2 10 13.2
003AD064 2019-02-22 19:01:22 21.2 10 13.3
003AD064 2019-02-22 18:51:22 21.2 10 13.2
003AD064 2019-02-22 18:41:23 21.2 10 13.2
003AD064 2019-02-22 18:31:25 21.2 10 13.1
003AD064 2019-02-22 18:21:25 21.2 10 13.2
003AD064 2019-02-22 18:11:26 21.2 11 13.6
003AD064 2019-02-22 18:01:27 21.2 11 13.7
003AD064 2019-02-22 17:51:30 21.3 11 13.7
003AD064 2019-02-22 17:41:29 21.3 11 13.8
003AD064 2019-02-22 17:31:33 21.3 11 14.1
003AD064 2019-02-22 17:21:36 21.3 11 14.8
003AD064 2019-02-22 17:11:34 21.3 11 14.9
003AD064 2019-02-22 17:01:35 21.3 11 15.2
003AD064 2019-02-22 16:51:41 21.3 11 15.3
003AD064 2019-02-22 16:41:39 21.3 11 15.6
003AD064 2019-02-22 16:31:41 21.3 11 15.7
003AD064 2019-02-22 16:21:42 21.3 11 15.4
003AD064 2019-02-22 16:11:44 21.3 11 15.9
003AD064 2019-02-22 16:01:46 21.2 11 15.9
003AD064 2019-02-22 15:51:49 21.2 11 16.5
003AD064 2019-02-22 15:31:50 21.1 11 16.9
003AD064 2019-02-22 15:21:51 21.1 11 16.8
003AD064 2019-02-22 15:11:53 21 11 16.9
003AD064 2019-02-22 15:01:57 21 11 17.1
003AD064 2019-02-22 14:52:01 21 11 17.4
003AD064 2019-02-22 14:41:59 21 11 17.4
003AD064 2019-02-22 14:32:01 20.9 12 17.5
003AD064 2019-02-22 14:22:03 20.9 12 17.6
003AD064 2019-02-22 14:12:05 20.9 12 17.6
003AD064 2019-02-22 14:02:08 20.9 12 17.4
003AD064 2019-02-22 13:52:08 20.9 12 17.5
003AD064 2019-02-22 13:42:09 20.9 12 17.5
003AD064 2019-02-22 13:32:10 20.8 12 17.4
003AD064 2019-02-22 13:22:14 20.8 12 17.3
003AD064 2019-02-22 13:12:14 20.8 12 17.1
003AD064 2019-02-22 13:02:15 20.8 12 17
003AD064 2019-02-22 12:52:17 20.8 12 17
003AD064 2019-02-22 12:42:18 20.8 12 16.9
003AD064 2019-02-22 12:32:19 20.8 12 16.7
003AD064 2019-02-22 12:22:20 20.8 12 16.7
003AD064 2019-02-22 12:12:22 20.7 12 17.2
003AD064 2019-02-22 12:02:26 20.7 12 17.3
003AD064 2019-02-22 11:52:25 20.7 12 17.1
003AD064 2019-02-22 11:41:54 20.7 12 17
003AD064 2019-02-22 11:31:57 20.7 12 17.3
003AD064 2019-02-22 11:22:00 20.7 12 17.4
003AD064 2019-02-22 11:12:00 20.6 12 17.5
003AD064 2019-02-22 11:02:01 20.6 12 17.3
003AD064 2019-02-22 10:52:03 20.5 12 17.8
003AD064 2019-02-22 10:42:07 20.5 12 17.7
003AD064 2019-02-22 10:32:08 20.5 12 18.2
003AD064 2019-02-22 10:22:08 20.5 12 18.3
003AD064 2019-02-22 10:12:09 20.5 12 18.7
003AD064 2019-02-22 10:02:10 20.5 12 18.9
003AD064 2019-02-22 09:52:11 20.5 12 18.9
003AD064 2019-02-22 09:42:13 20.4 12 19.2
003AD064 2019-02-22 09:32:16 20.4 12 19.2
003AD064 2019-02-22 09:22:15 20.4 12 19.4
003AD064 2019-02-22 09:12:17 20.5 12 19.4
003AD064 2019-02-22 09:02:18 20.4 12 19.3
003AD064 2019-02-22 08:52:24 20.5 12 19.4
003AD064 2019-02-22 08:42:20 20.5 12 19.7
003AD064 2019-02-22 08:32:24 20.5 12 19.9
003AD064 2019-02-22 08:22:23 20.5 12 19.6
003AD064 2019-02-22 08:12:25 20.5 12 19.9
003AD064 2019-02-22 08:02:26 20.5 12 20.1
003AD064 2019-02-22 07:52:30 20.5 12 20.1
003AD064 2019-02-22 07:42:30 20.5 12 19.8
003AD064 2019-02-22 07:32:31 20.5 12 19.9
003AD064 2019-02-22 07:22:34 20.5 12 20.2
003AD064 2019-02-22 07:12:36 20.5 12 20.1
003AD064 2019-02-22 07:02:37 20.5 12 20.1
003AD064 2019-02-22 06:52:38 20.5 12 20.4
003AD064 2019-02-22 06:42:40 20.5 12 20.3
003AD064 2019-02-22 06:32:43 20.5 12 20.4
003AD064 2019-02-22 06:22:43 20.5 12 20.2
003AD064 2019-02-22 06:12:44 20.5 12 20.6
003AD064 2019-02-22 06:02:46 20.5 12 20.5
003AD064 2019-02-22 05:52:47 20.5 12 20.4
003AD064 2019-02-22 05:42:49 20.5 12 20.4
003AD064 2019-02-22 05:32:50 20.5 12 20.1
003AD064 2019-02-22 05:22:54 20.5 12 20.3
003AD064 2019-02-22 05:12:52 20.5 12 20.2
003AD064 2019-02-22 05:02:54 20.5 12 20.2
003AD064 2019-02-22 04:52:56 20.5 12 20.4
003AD064 2019-02-22 04:42:57 20.5 12 20.3
003AD064 2019-02-22 04:32:58 20.6 12 20
003AD064 2019-02-22 04:23:00 20.6 12 20.2
003AD064 2019-02-22 04:13:02 20.6 12 20.4
003AD064 2019-02-22 04:03:04 20.6 12 20.2
003AD064 2019-02-22 03:53:06 20.6 12 20.1
003AD064 2019-02-22 03:43:08 20.6 12 20
003AD064 2019-02-22 03:33:09 20.6 12 20.2
003AD064 2019-02-22 03:22:38 20.6 12 19.7
003AD064 2019-02-22 03:12:40 20.6 12 19.7
003AD064 2019-02-22 03:02:41 20.6 12 19.7
003AD064 2019-02-22 02:52:45 20.6 12 19.3
003AD064 2019-02-22 02:42:45 20.6 12 19
003AD064 2019-02-22 02:32:47 20.6 12 18.9
003AD064 2019-02-22 02:22:49 20.6 12 18.8
003AD064 2019-02-22 02:12:50 20.6 12 18
003AD064 2019-02-22 02:02:51 20.6 12 18
003AD064 2019-02-22 01:52:53 20.6 12 18.2
003AD064 2019-02-22 01:42:54 20.7 12 18.4
003AD064 2019-02-22 01:32:55 20.6 12 18.4
003AD064 2019-02-22 01:22:57 20.7 12 18.5
003AD064 2019-02-22 01:12:59 20.7 12 18.3
003AD064 2019-02-22 01:03:02 20.7 12 18.5
003AD064 2019-02-22 00:53:06 20.7 12 18.4
003AD064 2019-02-22 00:43:06 20.7 12 18.3
003AD064 2019-02-22 00:33:05 20.7 12 18.5
003AD064 2019-02-22 00:23:06 20.7 12 18.3
003AD064 2019-02-22 00:13:08 20.7 12 18
003AD064 2019-02-22 00:03:12 20.7 12 17.5
003AD064 2019-02-21 23:53:11 20.7 12 17.8
003AD064 2019-02-21 23:43:14 20.7 12 17.9
003AD064 2019-02-21 23:33:13 20.7 12 17.8
003AD064 2019-02-21 23:23:15 20.7 12 17.6
003AD064 2019-02-21 23:13:16 20.7 12 17.8
003AD064 2019-02-21 23:03:18 20.7 12 17.8
003AD064 2019-02-21 22:53:21 20.7 12 17.5
003AD064 2019-02-21 22:43:25 20.8 12 17.6
003AD064 2019-02-21 22:33:24 20.8 12 18.1
003AD064 2019-02-21 22:23:24 20.8 12 18.1
003AD064 2019-02-21 22:13:25 20.8 12 18.3
003AD064 2019-02-21 22:03:26 20.8 12 18.3
003AD064 2019-02-21 21:53:28 20.8 12 18.2
003AD064 2019-02-21 21:43:29 20.8 12 18
003AD064 2019-02-21 21:33:31 20.8 12 17.9
003AD064 2019-02-21 21:23:34 20.8 12 18.2
003AD064 2019-02-21 21:13:34 20.9 12 20
003AD064 2019-02-21 21:03:38 20.9 12 21.4
003AD064 2019-02-21 20:53:38 20.9 12 22.5
003AD064 2019-02-21 20:43:40 20.9 12 23.3
003AD064 2019-02-21 20:33:42 20.9 12 24
003AD064 2019-02-21 20:23:44 20.9 12 24.6
003AD064 2019-02-21 20:13:45 21 12 24.5
003AD064 2019-02-21 20:03:47 21 12 24.5
003AD064 2019-02-21 19:53:49 21 12 24.5
003AD064 2019-02-21 19:43:50 21 12 24.5
003AD064 2019-02-21 19:33:51 21 12 24.4
003AD064 2019-02-21 19:23:53 21 12 24.4
003AD064 2019-02-21 19:13:54 21 12 24.4
003AD064 2019-02-21 19:03:23 21.1 12 24.4
003AD064 2019-02-21 18:33:45 21.1 13 24.4
003AD064 2019-02-21 18:04:07 21.2 13 24.4
003AD064 2019-02-21 17:34:29 21.2 13 24.3
003AD064 2019-02-21 17:04:52 21.1 14 24.4
003AD064 2019-02-21 16:35:18 21 13 24.4
003AD064 2019-02-21 16:05:39 20.8 13 24.4
003AD064 2019-02-21 15:35:58 20.8 13 24.4
003AD064 2019-02-21 15:06:19 20.7 13 24.4
003AD064 2019-02-21 14:36:41 20.7 14 24.4
003AD064 2019-02-21 14:07:03 20.7 14 24.4
003AD064 2019-02-21 13:37:25 20.6 14 23.7
003AD064 2019-02-21 13:07:47 20.6 14 22.9
003AD064 2019-02-21 12:38:12 20.6 14 22
003AD064 2019-02-21 12:08:31 20.6 15 20.7
003AD064 2019-02-21 11:38:53 20.6 15 19.1
003AD064 2019-02-21 11:09:19 20.6 15 16.3
003AD064 2019-02-21 10:10:03 20.6 16 16.6
003AD064 2019-02-21 09:10:47 20.6 16 16.7
003AD064 2019-02-21 08:41:07 20.6 16 16.6
003AD064 2019-02-21 08:11:29 20.5 17 16.7
003AD064 2019-02-21 07:41:51 20.6 17 17.1
003AD064 2019-02-21 07:12:12 20.6 17 17.1
003AD064 2019-02-21 06:42:37 20.6 17 17.4
003AD064 2019-02-21 06:12:57 20.6 17 17.4
003AD064 2019-02-21 05:13:44 20.6 18 17.1
003AD064 2019-02-21 04:44:04 20.7 18 17.3
003AD064 2019-02-21 04:14:28 20.6 18 17.3
003AD064 2019-02-21 03:44:49 20.6 18 16.9
003AD064 2019-02-21 03:15:16 20.7 18 16.8
003AD064 2019-02-21 02:45:36 20.7 18 17
003AD064 2019-02-21 02:15:55 20.7 18 17.4
003AD064 2019-02-21 01:46:16 20.7 19 17
003AD064 2019-02-21 01:16:39 20.7 19 16.8
003AD064 2019-02-21 00:47:00 20.7 19 19.4
003AD064 2019-02-21 00:17:25 20.7 19 21
003AD064 2019-02-20 23:47:45 20.7 19 21.2
003AD064 2019-02-20 23:18:08 20.7 19 22.3
003AD064 2019-02-20 22:48:30 20.7 19 23.2
003AD064 2019-02-20 22:18:51 20.7 19 23.2
003AD064 2019-02-20 21:49:12 20.7 19 23.2
003AD064 2019-02-20 21:19:34 20.7 19 23.1
003AD064 2019-02-20 20:49:56 20.7 20 23.9
003AD064 2019-02-20 20:20:15 20.7 20 24
003AD064 2019-02-20 19:50:38 20.8 20 24.1
003AD064 2019-02-20 19:20:59 20.8 20 24.1
003AD064 2019-02-20 18:51:21 21 20 24.1
003AD064 2019-02-20 18:50:10 20.8 20 24.2
003AD064 2019-02-20 18:20:36 20.8 20 24.2
003AD064 2019-02-20 17:50:56 20.8 21 24.3
003AD064 2019-02-20 17:21:18 20.8 21 24.3
003AD064 2019-02-20 16:51:37 20.8 22 24.3
003AD064 2019-02-20 16:21:59 20.8 22 24.3
003AD064 2019-02-20 15:52:22 20.8 22 24.4
003AD064 2019-02-20 15:22:44 20.8 22 24.4
003AD064 2019-02-20 14:23:22 20.8 23 24.3